Wetterdaten: Montag, 13.12.2021
Datum Zeit Temp. Aussen Temp. o. S. Temp +5cm Feuchte Auss Luftdruck Regen Sonnenschein Regendauer Solar Windben Empfang
13.12.2021 00:00 9,0 C 8,3 C 7,8 C 100 % 1026,1 hPa 0,0 l/m 0 min 0 min 0 W/m 9,7 km/h (2 Bft) 100,00 %
13.12.2021 00:02 9,0 C 8,3 C 7,8 C 100 % 1026,1 hPa 0,0 l/m 0 min 0 min 0 W/m 16,1 km/h (3 Bft) 100,00 %
13.12.2021 00:04 9,0 C 8,3 C 7,8 C 100 % 1026,0 hPa 0,0 l/m 0 min 0 min 0 W/m 19,3 km/h (3 Bft) 100,00 %
13.12.2021 00:08 9,0 C 8,3 C 7,8 C 100 % 1026,0 hPa 0,0 l/m 0 min 0 min 0 W/m 16,1 km/h (3 Bft) 100,00 %
13.12.2021 00:10 9,0 C 8,3 C 7,8 C 100 % 1026,1 hPa 0,0 l/m 0 min 0 min 0 W/m 12,9 km/h (3 Bft) 97,87 %
13.12.2021 00:12 9,0 C 8,3 C 7,8 C 100 % 1026,0 hPa 0,0 l/m 0 min 0 min 0 W/m 12,9 km/h (3 Bft) 97,87 %
13.12.2021 00:14 9,0 C 8,3 C 7,8 C 100 % 1026,0 hPa 0,0 l/m 0 min 0 min 0 W/m 16,1 km/h (3 Bft) 100,00 %
13.12.2021 00:16 9,0 C 8,3 C 7,8 C 100 % 1026,1 hPa 0,0 l/m 0 min 0 min 0 W/m 16,1 km/h (3 Bft) 100,00 %
13.12.2021 00:18 9,0 C 8,3 C 7,8 C 100 % 1026,0 hPa 0,0 l/m 0 min 0 min 0 W/m 12,9 km/h (3 Bft) 100,00 %
13.12.2021 00:20 9,0 C 8,3 C 7,8 C 100 % 1026,0 hPa 0,0 l/m 0 min 2 min 0 W/m 9,7 km/h (2 Bft) 97,83 %
13.12.2021 00:22 8,9 C 8,3 C 7,8 C 100 % 1026,0 hPa 0,0 l/m 0 min 0 min 0 W/m 16,1 km/h (3 Bft) 100,00 %
13.12.2021 00:24 9,0 C 8,3 C 7,8 C 100 % 1026,0 hPa 0,0 l/m 0 min 2 min 0 W/m 12,9 km/h (3 Bft) 97,87 %
13.12.2021 00:26 9,0 C 8,3 C 7,8 C 100 % 1026,0 hPa 0,0 l/m 0 min 0 min 0 W/m 12,9 km/h (3 Bft) 97,87 %
13.12.2021 00:28 8,9 C 8,3 C 7,8 C 100 % 1025,9 hPa 0,0 l/m 0 min 0 min 0 W/m 16,1 km/h (3 Bft) 97,87 %
13.12.2021 00:30 8,9 C 8,3 C 7,8 C 100 % 1026,0 hPa 0,0 l/m 0 min 0 min 0 W/m 16,1 km/h (3 Bft) 97,87 %
13.12.2021 00:32 8,9 C 8,3 C 7,8 C 100 % 1026,0 hPa 0,0 l/m 0 min 0 min 0 W/m 12,9 km/h (3 Bft) 97,87 %
13.12.2021 00:34 8,9 C 8,3 C 7,8 C 100 % 1026,0 hPa 0,0 l/m 0 min 2 min 0 W/m 16,1 km/h (3 Bft) 97,87 %
13.12.2021 00:36 8,9 C 8,3 C 7,8 C 99 % 1026,0 hPa 0,2 l/m 0 min 0 min 0 W/m 12,9 km/h (3 Bft) 93,62 %
13.12.2021 00:38 8,9 C 8,3 C 7,8 C 99 % 1025,9 hPa 0,0 l/m 0 min 0 min 0 W/m 12,9 km/h (3 Bft) 97,87 %
13.12.2021 00:40 8,9 C 8,3 C 7,8 C 99 % 1025,9 hPa 0,0 l/m 0 min 0 min 0 W/m 6,4 km/h (2 Bft) 97,87 %
13.12.2021 00:42 8,9 C 7,8 C 7,8 C 99 % 1025,9 hPa 0,0 l/m 0 min 0 min 0 W/m 6,4 km/h (2 Bft) 95,65 %
13.12.2021 00:44 8,9 C 8,3 C 7,8 C 99 % 1026,0 hPa 0,0 l/m 0 min 2 min 0 W/m 12,9 km/h (3 Bft) 97,87 %
13.12.2021 00:46 8,9 C 8,3 C 7,8 C 99 % 1025,9 hPa 0,0 l/m 0 min 2 min 0 W/m 19,3 km/h (3 Bft) 97,87 %
13.12.2021 00:48 8,9 C 7,8 C 7,8 C 99 % 1026,0 hPa 0,0 l/m 0 min 0 min 0 W/m 12,9 km/h (3 Bft) 97,87 %
13.12.2021 00:50 8,9 C 7,8 C 7,8 C 99 % 1025,9 hPa 0,0 l/m 0 min 0 min 0 W/m 12,9 km/h (3 Bft) 97,87 %
13.12.2021 00:52 8,9 C 7,8 C 7,8 C 99 % 1026,0 hPa 0,0 l/m 0 min 0 min 0 W/m 12,9 km/h (3 Bft) 95,74 %
13.12.2021 00:54 8,8 C 7,8 C 7,8 C 99 % 1026,0 hPa 0,0 l/m 0 min 0 min 0 W/m 12,9 km/h (3 Bft) 97,83 %
13.12.2021 00:56 8,8 C 7,8 C 7,8 C 99 % 1026,0 hPa 0,0 l/m 0 min 0 min 0 W/m 12,9 km/h (3 Bft) 97,87 %
13.12.2021 00:58 8,8 C 7,8 C 7,8 C 99 % 1026,0 hPa 0,0 l/m 0 min 0 min 0 W/m 16,1 km/h (3 Bft) 100,00 %
13.12.2021 01:00 8,8 C 7,8 C 7,8 C 99 % 1026,0 hPa 0,0 l/m 0 min 0 min 0 W/m 6,4 km/h (2 Bft) 97,87 %
13.12.2021 01:02 8,8 C 7,8 C 7,8 C 99 % 1026,0 hPa 0,0 l/m 0 min 0 min 0 W/m 3,2 km/h (1 Bft) 79,07 %
13.12.2021 01:04 8,8 C 7,8 C 7,8 C 99 % 1025,9 hPa 0,0 l/m 0 min 0 min 0 W/m 12,9 km/h (3 Bft) 70,73 %
13.12.2021 01:06 8,8 C 7,8 C 7,8 C 99 % 1026,0 hPa 0,0 l/m 0 min 0 min 0 W/m 12,9 km/h (3 Bft) 97,87 %
13.12.2021 01:08 8,8 C 7,8 C 7,8 C 99 % 1025,9 hPa 0,0 l/m 0 min 0 min 0 W/m 12,9 km/h (3 Bft) 97,87 %
13.12.2021 01:10 8,8 C 7,8 C 7,8 C 99 % 1025,9 hPa 0,0 l/m 0 min 0 min 0 W/m 6,4 km/h (2 Bft) 100,00 %
13.12.2021 01:12 8,8 C 7,8 C 7,8 C 99 % 1026,0 hPa 0,0 l/m 0 min 0 min 0 W/m 6,4 km/h (2 Bft) 100,00 %
13.12.2021 01:14 8,8 C 7,8 C 7,8 C 99 % 1025,9 hPa 0,0 l/m 0 min 0 min 0 W/m 9,7 km/h (2 Bft) 100,00 %
13.12.2021 01:16 8,7 C 7,8 C 7,8 C 99 % 1026,0 hPa 0,0 l/m 0 min 0 min 0 W/m 12,9 km/h (3 Bft) 97,87 %
13.12.2021 01:18 8,8 C 7,8 C 7,8 C 99 % 1026,0 hPa 0,0 l/m 0 min 0 min 0 W/m 12,9 km/h (3 Bft) 97,87 %
13.12.2021 01:20 8,7 C 7,8 C 7,8 C 99 % 1026,0 hPa 0,0 l/m 0 min 0 min 0 W/m 16,1 km/h (3 Bft) 93,62 %
13.12.2021 01:22 8,7 C 7,8 C 7,8 C 99 % 1026,0 hPa 0,0 l/m 0 min 0 min 0 W/m 12,9 km/h (3 Bft) 93,48 %
13.12.2021 01:24 8,7 C 7,8 C 7,8 C 99 % 1026,0 hPa 0,0 l/m 0 min 0 min 0 W/m 12,9 km/h (3 Bft) 95,74 %
13.12.2021 01:26 8,7 C 7,8 C 7,8 C 99 % 1025,9 hPa 0,0 l/m 0 min 0 min 0 W/m 16,1 km/h (3 Bft) 95,74 %
13.12.2021 01:28 8,7 C 7,8 C 7,8 C 99 % 1026,0 hPa 0,0 l/m 0 min 0 min 0 W/m 12,9 km/h (3 Bft) 95,74 %
13.12.2021 01:30 8,7 C 7,8 C 7,8 C 100 % 1026,0 hPa 0,0 l/m 0 min 0 min 0 W/m 12,9 km/h (3 Bft) 95,74 %
13.12.2021 01:32 8,7 C 7,8 C 7,8 C 100 % 1026,1 hPa 0,0 l/m 0 min 0 min 0 W/m 12,9 km/h (3 Bft) 95,74 %
13.12.2021 01:34 8,7 C 7,8 C 7,8 C 100 % 1026,0 hPa 0,0 l/m 0 min 0 min 0 W/m 9,7 km/h (2 Bft) 95,65 %
13.12.2021 01:36 8,7 C 7,8 C 7,8 C 100 % 1026,1 hPa 0,0 l/m 0 min 0 min 0 W/m 9,7 km/h (2 Bft) 95,74 %
13.12.2021 01:38 8,7 C 7,8 C 7,8 C 100 % 1026,1 hPa 0,0 l/m 0 min 0 min 0 W/m 9,7 km/h (2 Bft) 93,62 %
13.12.2021 01:40 8,7 C 7,8 C 7,8 C 100 % 1026,1 hPa 0,0 l/m 0 min 0 min 0 W/m 16,1 km/h (3 Bft) 93,62 %
13.12.2021 01:42 8,7 C 7,8 C 7,8 C 100 % 1026,1 hPa 0,0 l/m 0 min 0 min 0 W/m 19,3 km/h (3 Bft) 95,74 %
13.12.2021 01:44 8,7 C 7,8 C 7,8 C 100 % 1026,1 hPa 0,0 l/m 0 min 0 min 0 W/m 12,9 km/h (3 Bft) 95,74 %
13.12.2021 01:46 8,7 C 7,8 C 7,8 C 100 % 1026,0 hPa 0,0 l/m 0 min 0 min 0 W/m 16,1 km/h (3 Bft) 95,65 %
13.12.2021 01:48 8,7 C 7,8 C 7,8 C 100 % 1026,0 hPa 0,0 l/m 0 min 0 min 0 W/m 12,9 km/h (3 Bft) 95,74 %
13.12.2021 01:50 8,7 C 7,8 C 7,8 C 100 % 1026,1 hPa 0,0 l/m 0 min 0 min 0 W/m 9,7 km/h (2 Bft) 95,74 %
13.12.2021 01:52 8,7 C 7,8 C 7,8 C 100 % 1026,1 hPa 0,0 l/m 0 min 0 min 0 W/m 6,4 km/h (2 Bft) 93,62 %
13.12.2021 01:54 8,7 C 7,8 C 7,8 C 100 % 1026,1 hPa 0,0 l/m 0 min 0 min 0 W/m 6,4 km/h (2 Bft) 95,74 %
13.12.2021 01:56 8,6 C 7,8 C 7,8 C 100 % 1026,0 hPa 0,0 l/m 0 min 0 min 0 W/m 9,7 km/h (2 Bft) 95,74 %
13.12.2021 01:58 8,6 C 7,8 C 7,8 C 100 % 1026,0 hPa 0,0 l/m 0 min 0 min 0 W/m 6,4 km/h (2 Bft) 95,92 %
13.12.2021 02:00 8,6 C 7,8 C 7,8 C 100 % 1026,1 hPa 0,0 l/m 0 min 0 min 0 W/m 9,7 km/h (2 Bft) 97,87 %
13.12.2021 02:02 8,6 C 7,8 C 7,8 C 100 % 1026,0 hPa 0,0 l/m 0 min 0 min 0 W/m 6,4 km/h (2 Bft) 95,74 %
13.12.2021 02:04 8,6 C 7,8 C 7,8 C 100 % 1026,1 hPa 0,0 l/m 0 min 0 min 0 W/m 6,4 km/h (2 Bft) 97,56 %
13.12.2021 02:06 8,6 C 7,8 C 7,8 C 100 % 1026,1 hPa 0,0 l/m 0 min 0 min 0 W/m 3,2 km/h (1 Bft) 93,62 %
13.12.2021 02:08 8,6 C 7,8 C 7,8 C 100 % 1026,1 hPa 0,0 l/m 0 min 0 min 0 W/m 9,7 km/h (2 Bft) 97,87 %
13.12.2021 02:10 8,6 C 7,8 C 7,8 C 100 % 1026,1 hPa 0,0 l/m 0 min 0 min 0 W/m 6,4 km/h (2 Bft) 100,00 %
13.12.2021 02:12 8,6 C 7,8 C 7,8 C 100 % 1026,1 hPa 0,0 l/m 0 min 0 min 0 W/m 6,4 km/h (2 Bft) 100,00 %
13.12.2021 02:14 8,6 C 7,8 C 7,8 C 100 % 1026,1 hPa 0,0 l/m 0 min 0 min 0 W/m 9,7 km/h (2 Bft) 100,00 %
13.12.2021 02:16 8,6 C 7,8 C 7,2 C 100 % 1026,1 hPa 0,0 l/m 0 min 0 min 0 W/m 3,2 km/h (1 Bft) 97,87 %
13.12.2021 02:18 8,6 C 7,8 C 7,2 C 99 % 1026,1 hPa 0,0 l/m 0 min 0 min 0 W/m 6,4 km/h (2 Bft) 100,00 %
13.12.2021 02:20 8,6 C 7,8 C 7,2 C 99 % 1026,0 hPa 0,0 l/m 0 min 0 min 0 W/m 16,1 km/h (3 Bft) 100,00 %
13.12.2021 02:22 8,5 C 7,8 C 7,2 C 99 % 1026,1 hPa 0,0 l/m 0 min 0 min 0 W/m 6,4 km/h (2 Bft) 100,00 %
13.12.2021 02:24 8,5 C 7,8 C 7,2 C 99 % 1026,1 hPa 0,0 l/m 0 min 0 min 0 W/m 9,7 km/h (2 Bft) 97,87 %
13.12.2021 02:26 8,5 C 7,8 C 7,2 C 99 % 1026,1 hPa 0,0 l/m 0 min 0 min 0 W/m 6,4 km/h (2 Bft) 100,00 %
13.12.2021 02:28 8,5 C 7,8 C 7,2 C 99 % 1026,2 hPa 0,0 l/m 0 min 0 min 0 W/m 9,7 km/h (2 Bft) 97,87 %
13.12.2021 02:30 8,5 C 7,8 C 7,2 C 99 % 1026,2 hPa 0,0 l/m 0 min 0 min 0 W/m 9,7 km/h (2 Bft) 100,00 %
13.12.2021 02:32 8,5 C 7,8 C 7,2 C 99 % 1026,2 hPa 0,0 l/m 0 min 0 min 0 W/m 12,9 km/h (3 Bft) 100,00 %
13.12.2021 02:34 8,5 C 7,8 C 7,2 C 99 % 1026,2 hPa 0,0 l/m 0 min 0 min 0 W/m 6,4 km/h (2 Bft) 100,00 %
13.12.2021 02:36 8,4 C 7,8 C 7,2 C 99 % 1026,2 hPa 0,0 l/m 0 min 0 min 0 W/m 9,7 km/h (2 Bft) 97,87 %
13.12.2021 02:38 8,5 C 7,8 C 7,2 C 99 % 1026,2 hPa 0,0 l/m 0 min 0 min 0 W/m 6,4 km/h (2 Bft) 59,57 %
13.12.2021 02:40 8,4 C 7,8 C 7,2 C 99 % 1026,2 hPa 0,0 l/m 0 min 0 min 0 W/m 6,4 km/h (2 Bft) 97,92 %
13.12.2021 02:42 8,4 C 7,8 C 7,2 C 99 % 1026,2 hPa 0,0 l/m 0 min 0 min 0 W/m 9,7 km/h (2 Bft) 100,00 %
13.12.2021 02:44 8,4 C 7,8 C 7,2 C 99 % 1026,3 hPa 0,0 l/m 0 min 0 min 0 W/m 6,4 km/h (2 Bft) 100,00 %
13.12.2021 02:46 8,4 C 7,8 C 7,2 C 99 % 1026,3 hPa 0,0 l/m 0 min 0 min 0 W/m 6,4 km/h (2 Bft) 97,83 %
13.12.2021 02:48 8,4 C 7,8 C 7,2 C 99 % 1026,3 hPa 0,0 l/m 0 min 0 min 0 W/m 9,7 km/h (2 Bft) 97,87 %
13.12.2021 02:50 8,4 C 7,8 C 7,2 C 99 % 1026,3 hPa 0,0 l/m 0 min 0 min 0 W/m 6,4 km/h (2 Bft) 97,87 %
13.12.2021 02:52 8,4 C 7,8 C 7,2 C 99 % 1026,3 hPa 0,0 l/m 0 min 0 min 0 W/m 12,9 km/h (3 Bft) 100,00 %
13.12.2021 02:54 8,4 C 7,8 C 7,2 C 99 % 1026,3 hPa 0,0 l/m 0 min 0 min 0 W/m 6,4 km/h (2 Bft) 100,00 %
13.12.2021 02:56 8,3 C 7,8 C 7,2 C 99 % 1026,3 hPa 0,0 l/m 0 min 0 min 0 W/m 6,4 km/h (2 Bft) 97,83 %
13.12.2021 02:58 8,3 C 7,8 C 7,2 C 99 % 1026,3 hPa 0,0 l/m 0 min 0 min 0 W/m 6,4 km/h (2 Bft) 97,92 %
13.12.2021 03:00 8,3 C 7,8 C 7,2 C 99 % 1026,4 hPa 0,0 l/m 0 min 0 min 0 W/m 3,2 km/h (1 Bft) 95,74 %
13.12.2021 03:02 8,3 C 7,8 C 7,2 C 99 % 1026,4 hPa 0,0 l/m 0 min 0 min 0 W/m 9,7 km/h (2 Bft) 97,92 %
13.12.2021 03:04 8,3 C 7,8 C 7,2 C 99 % 1026,4 hPa 0,0 l/m 0 min 0 min 0 W/m 6,4 km/h (2 Bft) 97,62 %
13.12.2021 03:06 8,3 C 7,8 C 7,2 C 99 % 1026,4 hPa 0,0 l/m 0 min 0 min 0 W/m 6,4 km/h (2 Bft) 97,87 %
13.12.2021 03:08 8,3 C 7,8 C 7,2 C 99 % 1026,5 hPa 0,0 l/m 0 min 0 min 0 W/m 6,4 km/h (2 Bft) 97,83 %
13.12.2021 03:10 8,4 C 7,8 C 7,2 C 99 % 1026,4 hPa 0,0 l/m 0 min 0 min 0 W/m 6,4 km/h (2 Bft) 97,87 %
13.12.2021 03:12 8,4 C 7,8 C 7,2 C 99 % 1026,4 hPa 0,0 l/m 0 min 0 min 0 W/m 9,7 km/h (2 Bft) 97,87 %
13.12.2021 03:14 8,3 C 7,8 C 7,2 C 99 % 1026,4 hPa 0,0 l/m 0 min 0 min 0 W/m 6,4 km/h (2 Bft) 97,87 %
13.12.2021 03:16 8,3 C 7,8 C 7,2 C 99 % 1026,4 hPa 0,0 l/m 0 min 0 min 0 W/m 9,7 km/h (2 Bft) 97,87 %
13.12.2021 03:18 8,4 C 7,8 C 7,2 C 99 % 1026,4 hPa 0,0 l/m 0 min 0 min 0 W/m 6,4 km/h (2 Bft) 97,87 %
13.12.2021 03:20 8,4 C 7,8 C 7,2 C 99 % 1026,4 hPa 0,0 l/m 0 min 0 min 0 W/m 9,7 km/h (2 Bft) 95,65 %
13.12.2021 03:22 8,4 C 7,8 C 7,2 C 99 % 1026,3 hPa 0,0 l/m 0 min 0 min 0 W/m 6,4 km/h (2 Bft) 93,62 %
13.12.2021 03:24 8,4 C 7,8 C 7,2 C 99 % 1026,3 hPa 0,0 l/m 0 min 0 min 0 W/m 6,4 km/h (2 Bft) 95,74 %
13.12.2021 03:26 8,4 C 7,8 C 7,2 C 99 % 1026,3 hPa 0,0 l/m 0 min 0 min 0 W/m 6,4 km/h (2 Bft) 93,62 %
13.12.2021 03:28 8,4 C 7,8 C 7,2 C 99 % 1026,3 hPa 0,0 l/m 0 min 0 min 0 W/m 9,7 km/h (2 Bft) 93,62 %
13.12.2021 03:30 8,4 C 7,8 C 7,2 C 99 % 1026,3 hPa 0,0 l/m 0 min 0 min 0 W/m 6,4 km/h (2 Bft) 95,74 %
13.12.2021 03:32 8,4 C 7,8 C 7,2 C 99 % 1026,3 hPa 0,0 l/m 0 min 0 min 0 W/m 9,7 km/h (2 Bft) 93,48 %
13.12.2021 03:34 8,4 C 7,8 C 7,2 C 99 % 1026,3 hPa 0,0 l/m 0 min 0 min 0 W/m 6,4 km/h (2 Bft) 95,74 %
13.12.2021 03:36 8,4 C 7,8 C 7,2 C 99 % 1026,3 hPa 0,0 l/m 0 min 0 min 0 W/m 6,4 km/h (2 Bft) 95,74 %
13.12.2021 03:38 8,4 C 7,8 C 7,2 C 99 % 1026,3 hPa 0,0 l/m 0 min 0 min 0 W/m 6,4 km/h (2 Bft) 95,74 %
13.12.2021 03:40 8,4 C 7,8 C 7,2 C 99 % 1026,3 hPa 0,0 l/m 0 min 0 min 0 W/m 12,9 km/h (3 Bft) 97,87 %
13.12.2021 03:42 8,4 C 7,8 C 7,2 C 99 % 1026,3 hPa 0,0 l/m 0 min 0 min 0 W/m 12,9 km/h (3 Bft) 97,87 %
13.12.2021 03:44 8,4 C 7,8 C 7,2 C 99 % 1026,3 hPa 0,0 l/m 0 min 0 min 0 W/m 3,2 km/h (1 Bft) 97,83 %
13.12.2021 03:46 8,4 C 7,8 C 7,2 C 99 % 1026,3 hPa 0,0 l/m 0 min 0 min 0 W/m 3,2 km/h (1 Bft) 95,74 %
13.12.2021 03:48 8,4 C 7,8 C 7,2 C 99 % 1026,3 hPa 0,0 l/m 0 min 0 min 0 W/m 6,4 km/h (2 Bft) 95,74 %
13.12.2021 03:50 8,4 C 7,8 C 7,2 C 99 % 1026,3 hPa 0,0 l/m 0 min 0 min 0 W/m 6,4 km/h (2 Bft) 100,00 %
13.12.2021 03:52 8,4 C 7,8 C 7,2 C 99 % 1026,3 hPa 0,0 l/m 0 min 0 min 0 W/m 9,7 km/h (2 Bft) 97,87 %
13.12.2021 03:54 8,4 C 7,8 C 7,2 C 99 % 1026,3 hPa 0,0 l/m 0 min 0 min 0 W/m 6,4 km/h (2 Bft) 97,87 %
13.12.2021 03:56 8,4 C 7,8 C 7,2 C 99 % 1026,3 hPa 0,0 l/m 0 min 0 min 0 W/m 12,9 km/h (3 Bft) 100,00 %
13.12.2021 03:58 8,4 C 7,8 C 7,2 C 99 % 1026,3 hPa 0,0 l/m 0 min 0 min 0 W/m 12,9 km/h (3 Bft) 100,00 %
13.12.2021 04:00 8,4 C 7,8 C 7,2 C 99 % 1026,3 hPa 0,0 l/m 0 min 0 min 0 W/m 6,4 km/h (2 Bft) 100,00 %
13.12.2021 04:02 8,4 C 7,8 C 7,2 C 99 % 1026,3 hPa 0,0 l/m 0 min 0 min 0 W/m 9,7 km/h (2 Bft) 94,29 %
13.12.2021 04:04 8,4 C 7,8 C 7,2 C 99 % 1026,4 hPa 0,0 l/m 0 min 0 min 0 W/m 12,9 km/h (3 Bft) 95,83 %
13.12.2021 04:06 8,4 C 7,8 C 7,2 C 99 % 1026,3 hPa 0,0 l/m 0 min 0 min 0 W/m 6,4 km/h (2 Bft) 100,00 %
13.12.2021 04:08 8,4 C 7,8 C 7,2 C 99 % 1026,4 hPa 0,0 l/m 0 min 0 min 0 W/m 16,1 km/h (3 Bft) 97,87 %
13.12.2021 04:10 8,4 C 7,8 C 7,2 C 99 % 1026,5 hPa 0,0 l/m 0 min 0 min 0 W/m 12,9 km/h (3 Bft) 100,00 %
13.12.2021 04:12 8,4 C 7,8 C 7,2 C 99 % 1026,4 hPa 0,0 l/m 0 min 0 min 0 W/m 9,7 km/h (2 Bft) 97,83 %
13.12.2021 04:14 8,4 C 7,8 C 7,2 C 99 % 1026,5 hPa 0,0 l/m 0 min 0 min 0 W/m 12,9 km/h (3 Bft) 100,00 %
13.12.2021 04:16 8,4 C 7,8 C 7,2 C 99 % 1026,5 hPa 0,0 l/m 0 min 0 min 0 W/m 6,4 km/h (2 Bft) 95,74 %
13.12.2021 04:18 8,4 C 7,8 C 7,2 C 99 % 1026,5 hPa 0,0 l/m 0 min 0 min 0 W/m 6,4 km/h (2 Bft) 95,74 %
13.12.2021 04:20 8,4 C 7,8 C 7,2 C 99 % 1026,5 hPa 0,0 l/m 0 min 0 min 0 W/m 6,4 km/h (2 Bft) 97,83 %
13.12.2021 04:22 8,4 C 7,8 C 7,2 C 99 % 1026,5 hPa 0,0 l/m 0 min 0 min 0 W/m 6,4 km/h (2 Bft) 97,87 %
13.12.2021 04:24 8,4 C 7,8 C 7,2 C 99 % 1026,5 hPa 0,0 l/m 0 min 0 min 0 W/m 3,2 km/h (1 Bft) 97,87 %
13.12.2021 04:26 8,4 C 7,8 C 7,2 C 99 % 1026,5 hPa 0,0 l/m 0 min 0 min 0 W/m 6,4 km/h (2 Bft) 95,74 %
13.12.2021 04:28 8,4 C 7,8 C 7,2 C 99 % 1026,5 hPa 0,0 l/m 0 min 0 min 0 W/m 6,4 km/h (2 Bft) 97,87 %
13.12.2021 04:30 8,4 C 7,8 C 7,2 C 99 % 1026,5 hPa 0,0 l/m 0 min 0 min 0 W/m 6,4 km/h (2 Bft) 95,74 %
13.12.2021 04:32 8,4 C 7,8 C 7,2 C 99 % 1026,5 hPa 0,0 l/m 0 min 0 min 0 W/m 6,4 km/h (2 Bft) 95,65 %
13.12.2021 04:34 8,4 C 7,8 C 7,2 C 99 % 1026,5 hPa 0,0 l/m 0 min 0 min 0 W/m 9,7 km/h (2 Bft) 97,87 %
13.12.2021 04:36 8,4 C 7,8 C 7,2 C 99 % 1026,5 hPa 0,0 l/m 0 min 0 min 0 W/m 9,7 km/h (2 Bft) 93,62 %
13.12.2021 04:38 8,4 C 7,8 C 7,2 C 99 % 1026,5 hPa 0,0 l/m 0 min 0 min 0 W/m 12,9 km/h (3 Bft) 97,87 %
13.12.2021 04:40 8,4 C 7,8 C 7,2 C 99 % 1026,5 hPa 0,0 l/m 0 min 0 min 0 W/m 12,9 km/h (3 Bft) 97,87 %
13.12.2021 04:42 8,4 C 7,8 C 7,2 C 99 % 1026,6 hPa 0,0 l/m 0 min 0 min 0 W/m 6,4 km/h (2 Bft) 97,87 %
13.12.2021 04:44 8,5 C 7,8 C 7,2 C 99 % 1026,5 hPa 0,0 l/m 0 min 0 min 0 W/m 16,1 km/h (3 Bft) 98,15 %
13.12.2021 04:46 8,5 C 7,8 C 7,2 C 99 % 1026,6 hPa 0,0 l/m 0 min 0 min 0 W/m 16,1 km/h (3 Bft) 97,87 %
13.12.2021 04:48 8,5 C 7,8 C 7,2 C 99 % 1026,5 hPa 0,0 l/m 0 min 0 min 0 W/m 9,7 km/h (2 Bft) 97,83 %
13.12.2021 04:50 8,5 C 7,8 C 7,2 C 99 % 1026,5 hPa 0,0 l/m 0 min 0 min 0 W/m 6,4 km/h (2 Bft) 95,74 %
13.12.2021 04:52 8,5 C 7,8 C 7,2 C 99 % 1026,5 hPa 0,0 l/m 0 min 0 min 0 W/m 6,4 km/h (2 Bft) 97,87 %
13.12.2021 04:54 8,5 C 7,8 C 7,2 C 99 % 1026,6 hPa 0,0 l/m 0 min 0 min 0 W/m 9,7 km/h (2 Bft) 97,87 %
13.12.2021 04:56 8,5 C 7,8 C 7,2 C 99 % 1026,7 hPa 0,0 l/m 0 min 0 min 0 W/m 12,9 km/h (3 Bft) 97,87 %
13.12.2021 04:58 8,6 C 7,8 C 7,2 C 99 % 1026,7 hPa 0,0 l/m 0 min 0 min 0 W/m 12,9 km/h (3 Bft) 97,62 %
13.12.2021 05:00 8,5 C 7,8 C 7,2 C 99 % 1026,7 hPa 0,0 l/m 0 min 0 min 0 W/m 6,4 km/h (2 Bft) 95,74 %
13.12.2021 05:02 8,5 C 7,8 C 7,2 C 99 % 1026,7 hPa 0,0 l/m 0 min 0 min 0 W/m 12,9 km/h (3 Bft) 98,00 %
13.12.2021 05:04 8,5 C 7,8 C 7,2 C 99 % 1026,7 hPa 0,0 l/m 0 min 0 min 0 W/m 12,9 km/h (3 Bft) 97,96 %
13.12.2021 05:06 8,6 C 7,8 C 7,2 C 99 % 1026,8 hPa 0,0 l/m 0 min 0 min 0 W/m 12,9 km/h (3 Bft) 93,62 %
13.12.2021 05:08 8,6 C 7,8 C 7,2 C 99 % 1026,7 hPa 0,0 l/m 0 min 0 min 0 W/m 9,7 km/h (2 Bft) 100,00 %
13.12.2021 05:10 8,6 C 7,8 C 7,2 C 99 % 1026,7 hPa 0,0 l/m 0 min 0 min 0 W/m 9,7 km/h (2 Bft) 100,00 %
13.12.2021 05:12 8,6 C 7,8 C 7,2 C 98 % 1026,7 hPa 0,0 l/m 0 min 0 min 0 W/m 9,7 km/h (2 Bft) 97,92 %
13.12.2021 05:14 8,6 C 7,8 C 7,2 C 98 % 1026,6 hPa 0,0 l/m 0 min 0 min 0 W/m 9,7 km/h (2 Bft) 95,74 %
13.12.2021 05:16 8,6 C 7,8 C 7,2 C 98 % 1026,6 hPa 0,0 l/m 0 min 0 min 0 W/m 12,9 km/h (3 Bft) 100,00 %
13.12.2021 05:18 8,6 C 7,8 C 7,2 C 98 % 1026,7 hPa 0,0 l/m 0 min 0 min 0 W/m 6,4 km/h (2 Bft) 97,87 %
13.12.2021 05:20 8,6 C 7,8 C 7,2 C 98 % 1026,6 hPa 0,0 l/m 0 min 0 min 0 W/m 12,9 km/h (3 Bft) 95,74 %
13.12.2021 05:22 8,6 C 7,8 C 7,2 C 98 % 1026,7 hPa 0,0 l/m 0 min 0 min 0 W/m 16,1 km/h (3 Bft) 93,62 %
13.12.2021 05:24 8,6 C 7,8 C 7,2 C 98 % 1026,7 hPa 0,0 l/m 0 min 0 min 0 W/m 9,7 km/h (2 Bft) 93,62 %
13.12.2021 05:26 8,6 C 7,8 C 7,2 C 98 % 1026,7 hPa 0,0 l/m 0 min 0 min 0 W/m 9,7 km/h (2 Bft) 97,83 %
13.12.2021 05:28 8,6 C 7,8 C 7,2 C 98 % 1026,7 hPa 0,0 l/m 0 min 0 min 0 W/m 9,7 km/h (2 Bft) 95,74 %
13.12.2021 05:30 8,6 C 7,8 C 7,2 C 98 % 1026,7 hPa 0,0 l/m 0 min 0 min 0 W/m 9,7 km/h (2 Bft) 95,74 %
13.12.2021 05:32 8,6 C 7,8 C 7,2 C 98 % 1026,7 hPa 0,0 l/m 0 min 0 min 0 W/m 12,9 km/h (3 Bft) 95,74 %
13.12.2021 05:34 8,6 C 7,8 C 7,2 C 98 % 1026,8 hPa 0,0 l/m 0 min 0 min 0 W/m 6,4 km/h (2 Bft) 95,74 %
13.12.2021 05:36 8,6 C 7,8 C 7,2 C 98 % 1026,8 hPa 0,0 l/m 0 min 0 min 0 W/m 16,1 km/h (3 Bft) 91,43 %
13.12.2021 05:38 8,6 C 7,8 C 7,2 C 98 % 1026,7 hPa 0,0 l/m 0 min 0 min 0 W/m 12,9 km/h (3 Bft) 95,74 %
13.12.2021 05:40 8,6 C 7,8 C 7,2 C 98 % 1026,7 hPa 0,0 l/m 0 min 0 min 0 W/m 9,7 km/h (2 Bft) 95,74 %
13.12.2021 05:42 8,6 C 7,8 C 7,2 C 98 % 1026,7 hPa 0,0 l/m 0 min 0 min 0 W/m 12,9 km/h (3 Bft) 95,65 %
13.12.2021 05:44 8,6 C 7,8 C 7,2 C 98 % 1026,7 hPa 0,0 l/m 0 min 0 min 0 W/m 12,9 km/h (3 Bft) 95,74 %
13.12.2021 05:46 8,6 C 7,8 C 7,2 C 98 % 1026,6 hPa 0,0 l/m 0 min 0 min 0 W/m 12,9 km/h (3 Bft) 94,55 %
13.12.2021 05:48 8,6 C 7,8 C 7,2 C 98 % 1026,7 hPa 0,0 l/m 0 min 0 min 0 W/m 19,3 km/h (3 Bft) 95,74 %
13.12.2021 05:50 8,6 C 7,8 C 7,2 C 98 % 1026,7 hPa 0,0 l/m 0 min 0 min 0 W/m 6,4 km/h (2 Bft) 95,74 %
13.12.2021 05:52 8,6 C 7,8 C 7,2 C 98 % 1026,7 hPa 0,0 l/m 0 min 0 min 0 W/m 6,4 km/h (2 Bft) 95,74 %
13.12.2021 05:54 8,6 C 7,8 C 7,2 C 98 % 1026,7 hPa 0,0 l/m 0 min 0 min 0 W/m 19,3 km/h (3 Bft) 97,87 %
13.12.2021 05:56 8,6 C 7,8 C 7,2 C 98 % 1026,7 hPa 0,0 l/m 0 min 0 min 0 W/m 12,9 km/h (3 Bft) 97,87 %
13.12.2021 05:58 8,6 C 7,8 C 7,2 C 98 % 1026,6 hPa 0,0 l/m 0 min 0 min 0 W/m 12,9 km/h (3 Bft) 97,56 %
13.12.2021 06:00 8,6 C 7,8 C 7,2 C 98 % 1026,6 hPa 0,0 l/m 0 min 0 min 0 W/m 9,7 km/h (2 Bft) 97,87 %
13.12.2021 06:02 8,6 C 7,8 C 7,2 C 98 % 1026,5 hPa 0,0 l/m 0 min 0 min 0 W/m 12,9 km/h (3 Bft) 97,96 %
13.12.2021 06:04 8,6 C 7,8 C 7,2 C 98 % 1026,6 hPa 0,0 l/m 0 min 0 min 0 W/m 12,9 km/h (3 Bft) 100,00 %
13.12.2021 06:07 8,6 C 7,8 C 7,2 C 98 % 1026,7 hPa 0,0 l/m 0 min 0 min 0 W/m 12,9 km/h (3 Bft) 98,59 %
13.12.2021 06:08 8,6 C 7,8 C 7,2 C 98 % 1026,7 hPa 0,0 l/m 0 min 0 min 0 W/m 6,4 km/h (2 Bft) 100,00 %
13.12.2021 06:10 8,6 C 7,8 C 7,2 C 98 % 1026,7 hPa 0,0 l/m 0 min 0 min 0 W/m 9,7 km/h (2 Bft) 100,00 %
13.12.2021 06:12 8,6 C 7,8 C 7,2 C 98 % 1026,7 hPa 0,0 l/m 0 min 0 min 0 W/m 12,9 km/h (3 Bft) 100,00 %
13.12.2021 06:14 8,6 C 7,8 C 7,2 C 98 % 1026,6 hPa 0,0 l/m 0 min 0 min 0 W/m 12,9 km/h (3 Bft) 100,00 %
13.12.2021 06:16 8,6 C 7,8 C 7,2 C 98 % 1026,5 hPa 0,0 l/m 0 min 0 min 0 W/m 12,9 km/h (3 Bft) 100,00 %
13.12.2021 06:18 8,6 C 7,8 C 7,2 C 98 % 1026,6 hPa 0,0 l/m 0 min 0 min 0 W/m 12,9 km/h (3 Bft) 100,00 %
13.12.2021 06:20 8,6 C 7,8 C 7,2 C 98 % 1026,6 hPa 0,0 l/m 0 min 0 min 0 W/m 16,1 km/h (3 Bft) 100,00 %
13.12.2021 06:22 8,6 C 7,8 C 7,2 C 98 % 1026,6 hPa 0,0 l/m 0 min 0 min 0 W/m 16,1 km/h (3 Bft) 100,00 %
13.12.2021 06:24 8,6 C 7,8 C 7,2 C 98 % 1026,6 hPa 0,0 l/m 0 min 0 min 0 W/m 9,7 km/h (2 Bft) 100,00 %
13.12.2021 06:26 8,6 C 7,8 C 7,2 C 98 % 1026,7 hPa 0,0 l/m 0 min 0 min 0 W/m 12,9 km/h (3 Bft) 100,00 %
13.12.2021 06:28 8,6 C 7,8 C 7,2 C 98 % 1026,7 hPa 0,0 l/m 0 min 0 min 0 W/m 6,4 km/h (2 Bft) 97,87 %
13.12.2021 06:30 8,6 C 7,8 C 7,2 C 98 % 1026,6 hPa 0,0 l/m 0 min 0 min 0 W/m 16,1 km/h (3 Bft) 100,00 %
13.12.2021 06:32 8,6 C 7,8 C 7,2 C 98 % 1026,7 hPa 0,0 l/m 0 min 0 min 0 W/m 12,9 km/h (3 Bft) 100,00 %
13.12.2021 06:34 8,6 C 7,8 C 7,2 C 98 % 1026,7 hPa 0,0 l/m 0 min 0 min 0 W/m 12,9 km/h (3 Bft) 100,00 %
13.12.2021 06:36 8,6 C 7,8 C 7,2 C 97 % 1026,6 hPa 0,0 l/m 0 min 0 min 0 W/m 12,9 km/h (3 Bft) 100,00 %
13.12.2021 06:38 8,6 C 7,8 C 7,2 C 97 % 1026,7 hPa 0,0 l/m 0 min 0 min 0 W/m 16,1 km/h (3 Bft) 100,00 %
13.12.2021 06:40 8,6 C 7,8 C 7,2 C 97 % 1026,7 hPa 0,0 l/m 0 min 0 min 0 W/m 12,9 km/h (3 Bft) 100,00 %
13.12.2021 06:42 8,6 C 7,8 C 7,2 C 97 % 1026,7 hPa 0,0 l/m 0 min 0 min 0 W/m 12,9 km/h (3 Bft) 97,87 %
13.12.2021 06:44 8,6 C 7,8 C 7,2 C 97 % 1026,7 hPa 0,0 l/m 0 min 0 min 0 W/m 12,9 km/h (3 Bft) 97,87 %
13.12.2021 06:46 8,6 C 7,8 C 7,2 C 97 % 1026,8 hPa 0,0 l/m 0 min 0 min 0 W/m 6,4 km/h (2 Bft) 97,87 %
13.12.2021 06:48 8,6 C 7,8 C 7,2 C 97 % 1026,8 hPa 0,0 l/m 0 min 0 min 0 W/m 9,7 km/h (2 Bft) 100,00 %
13.12.2021 06:50 8,6 C 7,8 C 7,2 C 97 % 1026,8 hPa 0,0 l/m 0 min 0 min 0 W/m 12,9 km/h (3 Bft) 97,87 %
13.12.2021 06:52 8,6 C 7,8 C 7,2 C 97 % 1026,8 hPa 0,0 l/m 0 min 0 min 0 W/m 16,1 km/h (3 Bft) 100,00 %
13.12.2021 06:54 8,6 C 7,8 C 7,2 C 97 % 1026,8 hPa 0,0 l/m 0 min 0 min 0 W/m 16,1 km/h (3 Bft) 100,00 %
13.12.2021 06:56 8,6 C 7,8 C 7,2 C 97 % 1026,8 hPa 0,0 l/m 0 min 0 min 0 W/m 9,7 km/h (2 Bft) 97,87 %
13.12.2021 06:58 8,6 C 7,8 C 7,2 C 97 % 1026,8 hPa 0,0 l/m 0 min 0 min 0 W/m 6,4 km/h (2 Bft) 100,00 %
13.12.2021 07:00 8,6 C 7,8 C 7,2 C 97 % 1026,9 hPa 0,0 l/m 0 min 0 min 0 W/m 9,7 km/h (2 Bft) 100,00 %
13.12.2021 07:02 8,6 C 7,8 C 7,2 C 97 % 1026,8 hPa 0,0 l/m 0 min 0 min 0 W/m 9,7 km/h (2 Bft) 95,83 %
13.12.2021 07:04 8,6 C 7,8 C 7,2 C 97 % 1027,0 hPa 0,0 l/m 0 min 0 min 0 W/m 12,9 km/h (3 Bft) 100,00 %
13.12.2021 07:06 8,6 C 7,8 C 7,2 C 97 % 1027,0 hPa 0,0 l/m 0 min 0 min 0 W/m 9,7 km/h (2 Bft) 100,00 %
13.12.2021 07:08 8,6 C 7,8 C 7,2 C 97 % 1027,0 hPa 0,0 l/m 0 min 0 min 0 W/m 6,4 km/h (2 Bft) 100,00 %
13.12.2021 07:10 8,6 C 7,8 C 7,2 C 97 % 1027,0 hPa 0,0 l/m 0 min 0 min 0 W/m 12,9 km/h (3 Bft) 97,87 %
13.12.2021 07:12 8,6 C 7,8 C 7,2 C 97 % 1027,0 hPa 0,0 l/m 0 min 0 min 0 W/m 9,7 km/h (2 Bft) 100,00 %
13.12.2021 07:14 8,6 C 7,8 C 7,2 C 97 % 1027,0 hPa 0,0 l/m 0 min 0 min 0 W/m 12,9 km/h (3 Bft) 95,74 %
13.12.2021 07:16 8,6 C 7,8 C 7,2 C 97 % 1027,0 hPa 0,0 l/m 0 min 0 min 0 W/m 16,1 km/h (3 Bft) 97,87 %
13.12.2021 07:18 8,6 C 7,8 C 7,2 C 97 % 1027,0 hPa 0,0 l/m 0 min 0 min 0 W/m 12,9 km/h (3 Bft) 97,83 %
13.12.2021 07:20 8,6 C 7,8 C 7,2 C 97 % 1027,0 hPa 0,0 l/m 0 min 0 min 0 W/m 9,7 km/h (2 Bft) 95,74 %
13.12.2021 07:22 8,6 C 7,8 C 7,2 C 97 % 1027,0 hPa 0,0 l/m 0 min 0 min 0 W/m 9,7 km/h (2 Bft) 95,74 %
13.12.2021 07:24 8,6 C 7,8 C 7,2 C 97 % 1027,0 hPa 0,0 l/m 0 min 0 min 0 W/m 12,9 km/h (3 Bft) 94,00 %
13.12.2021 07:26 8,6 C 7,8 C 7,2 C 97 % 1027,0 hPa 0,0 l/m 0 min 0 min 0 W/m 6,4 km/h (2 Bft) 95,74 %
13.12.2021 07:28 8,6 C 7,8 C 7,2 C 97 % 1027,0 hPa 0,0 l/m 0 min 0 min 0 W/m 6,4 km/h (2 Bft) 93,48 %
13.12.2021 07:30 8,6 C 7,8 C 7,2 C 97 % 1027,0 hPa 0,0 l/m 0 min 0 min 0 W/m 9,7 km/h (2 Bft) 95,74 %
13.12.2021 07:32 8,6 C 7,8 C 7,2 C 97 % 1027,0 hPa 0,0 l/m 0 min 0 min 0 W/m 9,7 km/h (2 Bft) 94,44 %
13.12.2021 07:34 8,6 C 7,8 C 7,2 C 97 % 1027,0 hPa 0,0 l/m 0 min 0 min 0 W/m 9,7 km/h (2 Bft) 95,74 %
13.12.2021 07:36 8,6 C 7,8 C 7,2 C 97 % 1027,0 hPa 0,0 l/m 0 min 0 min 0 W/m 9,7 km/h (2 Bft) 95,74 %
13.12.2021 07:38 8,6 C 7,8 C 7,2 C 97 % 1027,0 hPa 0,0 l/m 0 min 0 min 0 W/m 9,7 km/h (2 Bft) 95,74 %
13.12.2021 07:40 8,6 C 7,8 C 7,2 C 97 % 1027,0 hPa 0,0 l/m 0 min 0 min 0 W/m 9,7 km/h (2 Bft) 95,83 %
13.12.2021 07:42 8,6 C 7,8 C 7,2 C 97 % 1027,0 hPa 0,0 l/m 0 min 0 min 0 W/m 9,7 km/h (2 Bft) 93,62 %
13.12.2021 07:44 8,6 C 7,8 C 7,2 C 97 % 1027,0 hPa 0,0 l/m 0 min 0 min 0 W/m 12,9 km/h (3 Bft) 93,62 %
13.12.2021 07:46 8,6 C 7,8 C 7,2 C 96 % 1027,0 hPa 0,0 l/m 0 min 0 min 0 W/m 9,7 km/h (2 Bft) 97,87 %
13.12.2021 07:48 8,6 C 7,8 C 7,2 C 96 % 1027,0 hPa 0,0 l/m 0 min 0 min 0 W/m 6,4 km/h (2 Bft) 97,83 %
13.12.2021 07:50 8,6 C 7,8 C 7,2 C 96 % 1027,0 hPa 0,0 l/m 0 min 0 min 0 W/m 12,9 km/h (3 Bft) 97,87 %
13.12.2021 07:52 8,6 C 7,8 C 7,2 C 96 % 1027,0 hPa 0,0 l/m 0 min 0 min 0 W/m 6,4 km/h (2 Bft) 93,62 %
13.12.2021 07:54 8,6 C 7,8 C 7,2 C 96 % 1027,0 hPa 0,0 l/m 0 min 0 min 0 W/m 9,7 km/h (2 Bft) 97,87 %
13.12.2021 07:56 8,6 C 7,8 C 7,2 C 96 % 1027,1 hPa 0,0 l/m 0 min 0 min 0 W/m 12,9 km/h (3 Bft) 95,74 %
13.12.2021 07:58 8,6 C 7,8 C 7,2 C 96 % 1027,0 hPa 0,0 l/m 0 min 0 min 0 W/m 6,4 km/h (2 Bft) 95,83 %
13.12.2021 08:00 8,6 C 7,8 C 7,2 C 96 % 1027,1 hPa 0,0 l/m 0 min 0 min 0 W/m 9,7 km/h (2 Bft) 95,74 %
13.12.2021 08:02 8,6 C 7,8 C 7,2 C 96 % 1027,1 hPa 0,0 l/m 0 min 0 min 0 W/m 12,9 km/h (3 Bft) 91,67 %
13.12.2021 08:04 8,6 C 7,8 C 7,2 C 96 % 1027,1 hPa 0,0 l/m 0 min 0 min 0 W/m 12,9 km/h (3 Bft) 95,74 %
13.12.2021 08:06 8,6 C 7,8 C 7,2 C 96 % 1027,1 hPa 0,0 l/m 0 min 0 min 0 W/m 12,9 km/h (3 Bft) 95,65 %
13.12.2021 08:08 8,6 C 7,8 C 7,2 C 96 % 1027,1 hPa 0,0 l/m 0 min 0 min 0 W/m 9,7 km/h (2 Bft) 97,87 %
13.12.2021 08:10 8,6 C 7,8 C 7,2 C 96 % 1027,1 hPa 0,0 l/m 0 min 0 min 0 W/m 9,7 km/h (2 Bft) 97,87 %
13.12.2021 08:12 8,6 C 7,8 C 7,2 C 96 % 1027,0 hPa 0,0 l/m 0 min 0 min 0 W/m 12,9 km/h (3 Bft) 95,74 %
13.12.2021 08:14 8,6 C 7,8 C 7,2 C 96 % 1027,0 hPa 0,0 l/m 0 min 0 min 0 W/m 9,7 km/h (2 Bft) 95,74 %
13.12.2021 08:16 8,6 C 7,8 C 7,2 C 96 % 1027,1 hPa 0,0 l/m 0 min 0 min 0 W/m 16,1 km/h (3 Bft) 97,87 %
13.12.2021 08:18 8,6 C 7,8 C 7,2 C 96 % 1027,1 hPa 0,0 l/m 0 min 0 min 0 W/m 12,9 km/h (3 Bft) 97,83 %
13.12.2021 08:20 8,6 C 7,8 C 7,2 C 96 % 1027,1 hPa 0,0 l/m 0 min 0 min 0 W/m 9,7 km/h (2 Bft) 97,87 %
13.12.2021 08:22 8,6 C 7,8 C 7,2 C 96 % 1027,2 hPa 0,0 l/m 0 min 0 min 0 W/m 6,4 km/h (2 Bft) 91,49 %
13.12.2021 08:24 8,6 C 7,8 C 7,2 C 96 % 1027,2 hPa 0,0 l/m 0 min 0 min 0 W/m 12,9 km/h (3 Bft) 97,87 %
13.12.2021 08:26 8,6 C 7,8 C 7,2 C 96 % 1027,2 hPa 0,0 l/m 0 min 0 min 0 W/m 6,4 km/h (2 Bft) 95,74 %
13.12.2021 08:28 8,6 C 7,8 C 7,2 C 96 % 1027,2 hPa 0,0 l/m 0 min 0 min 0 W/m 9,7 km/h (2 Bft) 97,96 %
13.12.2021 08:30 8,6 C 7,8 C 7,2 C 96 % 1027,2 hPa 0,0 l/m 0 min 0 min 0 W/m 9,7 km/h (2 Bft) 97,87 %
13.12.2021 08:32 8,6 C 7,8 C 7,2 C 96 % 1027,2 hPa 0,0 l/m 0 min 0 min 0 W/m 9,7 km/h (2 Bft) 97,87 %
13.12.2021 08:34 8,7 C 7,8 C 7,2 C 96 % 1027,1 hPa 0,0 l/m 0 min 0 min 0 W/m 12,9 km/h (3 Bft) 97,87 %
13.12.2021 08:36 8,6 C 7,8 C 7,2 C 96 % 1027,2 hPa 0,0 l/m 0 min 0 min 0 W/m 6,4 km/h (2 Bft) 97,87 %
13.12.2021 08:38 8,7 C 7,8 C 7,2 C 96 % 1027,2 hPa 0,0 l/m 0 min 0 min 0 W/m 9,7 km/h (2 Bft) 100,00 %
13.12.2021 08:40 8,7 C 7,8 C 7,2 C 96 % 1027,3 hPa 0,0 l/m 0 min 0 min 0 W/m 6,4 km/h (2 Bft) 100,00 %
13.12.2021 08:42 8,6 C 7,8 C 7,2 C 96 % 1027,3 hPa 0,0 l/m 0 min 0 min 0 W/m 12,9 km/h (3 Bft) 100,00 %
13.12.2021 08:44 8,7 C 7,8 C 7,2 C 96 % 1027,3 hPa 0,0 l/m 0 min 0 min 0 W/m 6,4 km/h (2 Bft) 97,87 %
13.12.2021 08:46 8,7 C 7,8 C 7,2 C 96 % 1027,4 hPa 0,0 l/m 0 min 0 min 0 W/m 9,7 km/h (2 Bft) 97,87 %
13.12.2021 08:48 8,7 C 7,8 C 7,2 C 96 % 1027,4 hPa 0,0 l/m 0 min 0 min 0 W/m 12,9 km/h (3 Bft) 97,87 %
13.12.2021 08:50 8,7 C 7,8 C 7,2 C 95 % 1027,3 hPa 0,0 l/m 0 min 0 min 0 W/m 9,7 km/h (2 Bft) 97,83 %
13.12.2021 08:52 8,6 C 7,8 C 7,2 C 95 % 1027,4 hPa 0,0 l/m 0 min 0 min 0 W/m 9,7 km/h (2 Bft) 100,00 %
13.12.2021 08:54 8,7 C 7,8 C 7,2 C 95 % 1027,4 hPa 0,0 l/m 0 min 0 min 0 W/m 6,4 km/h (2 Bft) 100,00 %
13.12.2021 08:56 8,6 C 7,8 C 7,2 C 95 % 1027,4 hPa 0,0 l/m 0 min 0 min 0 W/m 6,4 km/h (2 Bft) 100,00 %
13.12.2021 08:58 8,6 C 7,8 C 7,2 C 95 % 1027,5 hPa 0,0 l/m 0 min 0 min 0 W/m 12,9 km/h (3 Bft) 100,00 %
13.12.2021 09:00 8,6 C 7,8 C 7,2 C 95 % 1027,5 hPa 0,0 l/m 0 min 0 min 1 W/m 6,4 km/h (2 Bft) 100,00 %
13.12.2021 09:02 8,6 C 7,8 C 7,2 C 95 % 1027,6 hPa 0,0 l/m 0 min 0 min 5 W/m 6,4 km/h (2 Bft) 97,83 %
13.12.2021 09:04 8,6 C 7,8 C 7,2 C 95 % 1027,7 hPa 0,0 l/m 0 min 0 min 5 W/m 3,2 km/h (1 Bft) 100,00 %
13.12.2021 09:06 8,6 C 7,8 C 7,2 C 95 % 1027,7 hPa 0,0 l/m 0 min 0 min 5 W/m 9,7 km/h (2 Bft) 100,00 %
13.12.2021 09:08 8,6 C 7,8 C 7,2 C 95 % 1027,7 hPa 0,0 l/m 0 min 0 min 5 W/m 3,2 km/h (1 Bft) 100,00 %
13.12.2021 09:10 8,6 C 7,8 C 7,2 C 95 % 1027,7 hPa 0,0 l/m 0 min 0 min 7 W/m 6,4 km/h (2 Bft) 100,00 %
13.12.2021 09:12 8,6 C 7,8 C 7,2 C 95 % 1027,7 hPa 0,0 l/m 0 min 0 min 7 W/m 12,9 km/h (3 Bft) 97,87 %
13.12.2021 09:14 8,6 C 7,8 C 7,2 C 95 % 1027,7 hPa 0,0 l/m 0 min 0 min 7 W/m 6,4 km/h (2 Bft) 97,83 %
13.12.2021 09:16 8,6 C 7,8 C 7,2 C 95 % 1027,8 hPa 0,0 l/m 0 min 0 min 7 W/m 6,4 km/h (2 Bft) 97,87 %
13.12.2021 09:18 8,6 C 7,8 C 7,2 C 95 % 1027,7 hPa 0,0 l/m 0 min 0 min 7 W/m 3,2 km/h (1 Bft) 97,87 %
13.12.2021 09:20 8,6 C 7,8 C 7,2 C 95 % 1027,8 hPa 0,0 l/m 0 min 0 min 8 W/m 12,9 km/h (3 Bft) 97,87 %
13.12.2021 09:22 8,6 C 7,8 C 7,2 C 95 % 1027,8 hPa 0,0 l/m 0 min 0 min 9 W/m 12,9 km/h (3 Bft) 97,87 %
13.12.2021 09:24 8,7 C 7,8 C 7,2 C 95 % 1027,8 hPa 0,0 l/m 0 min 0 min 9 W/m 12,9 km/h (3 Bft) 95,74 %
13.12.2021 09:26 8,7 C 7,8 C 7,2 C 95 % 1027,8 hPa 0,0 l/m 0 min 0 min 9 W/m 9,7 km/h (2 Bft) 97,83 %
13.12.2021 09:28 8,7 C 8,3 C 7,2 C 95 % 1027,9 hPa 0,0 l/m 0 min 0 min 9 W/m 12,9 km/h (3 Bft) 97,87 %
13.12.2021 09:30 8,7 C 7,8 C 7,2 C 95 % 1027,9 hPa 0,0 l/m 0 min 0 min 11 W/m 12,9 km/h (3 Bft) 95,74 %
13.12.2021 09:32 8,7 C 7,8 C 7,2 C 95 % 1027,9 hPa 0,0 l/m 0 min 0 min 11 W/m 9,7 km/h (2 Bft) 97,87 %
13.12.2021 09:34 8,7 C 7,8 C 7,2 C 95 % 1027,9 hPa 0,0 l/m 0 min 0 min 11 W/m 9,7 km/h (2 Bft) 97,87 %
13.12.2021 09:36 8,7 C 8,3 C 7,2 C 95 % 1027,9 hPa 0,0 l/m 0 min 0 min 11 W/m 16,1 km/h (3 Bft) 97,87 %
13.12.2021 09:38 8,7 C 8,3 C 7,2 C 95 % 1027,9 hPa 0,0 l/m 0 min 0 min 11 W/m 6,4 km/h (2 Bft) 97,83 %
13.12.2021 09:40 8,7 C 8,3 C 7,2 C 95 % 1027,9 hPa 0,0 l/m 0 min 0 min 11 W/m 12,9 km/h (3 Bft) 97,87 %
13.12.2021 09:42 8,7 C 8,3 C 7,2 C 95 % 1027,9 hPa 0,0 l/m 0 min 0 min 12 W/m 12,9 km/h (3 Bft) 97,87 %
13.12.2021 09:44 8,7 C 8,3 C 7,2 C 95 % 1027,9 hPa 0,0 l/m 0 min 0 min 12 W/m 9,7 km/h (2 Bft) 97,87 %
13.12.2021 09:46 8,7 C 8,3 C 7,2 C 95 % 1027,8 hPa 0,0 l/m 0 min 0 min 12 W/m 9,7 km/h (2 Bft) 95,74 %
13.12.2021 09:48 8,7 C 8,3 C 7,2 C 95 % 1027,8 hPa 0,0 l/m 0 min 0 min 12 W/m 12,9 km/h (3 Bft) 100,00 %
13.12.2021 09:50 8,7 C 8,3 C 7,2 C 95 % 1027,9 hPa 0,0 l/m 0 min 0 min 13 W/m 12,9 km/h (3 Bft) 100,00 %
13.12.2021 09:52 8,7 C 8,3 C 7,2 C 95 % 1027,9 hPa 0,0 l/m 0 min 0 min 14 W/m 6,4 km/h (2 Bft) 97,87 %
13.12.2021 09:54 8,7 C 8,3 C 7,2 C 95 % 1027,9 hPa 0,0 l/m 0 min 0 min 14 W/m 9,7 km/h (2 Bft) 100,00 %
13.12.2021 09:56 8,7 C 8,3 C 7,2 C 95 % 1027,8 hPa 0,0 l/m 0 min 0 min 15 W/m 22,5 km/h (4 Bft) 100,00 %
13.12.2021 09:58 8,7 C 8,3 C 7,2 C 95 % 1027,8 hPa 0,0 l/m 0 min 0 min 16 W/m 12,9 km/h (3 Bft) 100,00 %
13.12.2021 10:00 8,7 C 8,3 C 7,2 C 95 % 1027,8 hPa 0,0 l/m 0 min 0 min 18 W/m 9,7 km/h (2 Bft) 100,00 %
13.12.2021 10:02 8,7 C 8,3 C 7,2 C 95 % 1027,8 hPa 0,0 l/m 0 min 0 min 18 W/m 16,1 km/h (3 Bft) 100,00 %
13.12.2021 10:04 8,7 C 8,3 C 7,2 C 95 % 1027,8 hPa 0,0 l/m 0 min 0 min 19 W/m 12,9 km/h (3 Bft) 100,00 %
13.12.2021 10:06 8,7 C 8,3 C 7,2 C 95 % 1027,9 hPa 0,0 l/m 0 min 0 min 19 W/m 16,1 km/h (3 Bft) 97,87 %
13.12.2021 10:08 8,7 C 8,3 C 7,2 C 95 % 1027,9 hPa 0,0 l/m 0 min 0 min 21 W/m 9,7 km/h (2 Bft) 100,00 %
13.12.2021 10:10 8,7 C 8,3 C 7,2 C 95 % 1027,9 hPa 0,0 l/m 0 min 0 min 22 W/m 6,4 km/h (2 Bft) 100,00 %
13.12.2021 10:12 8,7 C 8,3 C 7,2 C 95 % 1027,9 hPa 0,0 l/m 0 min 0 min 23 W/m 9,7 km/h (2 Bft) 97,83 %
13.12.2021 10:14 8,7 C 8,3 C 7,2 C 95 % 1027,9 hPa 0,0 l/m 0 min 0 min 23 W/m 6,4 km/h (2 Bft) 97,87 %
13.12.2021 10:16 8,7 C 8,3 C 7,2 C 95 % 1027,9 hPa 0,0 l/m 0 min 0 min 24 W/m 12,9 km/h (3 Bft) 97,87 %
13.12.2021 10:18 8,7 C 8,3 C 7,2 C 95 % 1027,9 hPa 0,0 l/m 0 min 0 min 25 W/m 12,9 km/h (3 Bft) 93,62 %
13.12.2021 10:20 8,7 C 8,3 C 7,2 C 95 % 1027,9 hPa 0,0 l/m 0 min 0 min 26 W/m 9,7 km/h (2 Bft) 97,87 %
13.12.2021 10:22 8,7 C 8,3 C 7,2 C 95 % 1028,0 hPa 0,0 l/m 0 min 0 min 26 W/m 12,9 km/h (3 Bft) 95,74 %
13.12.2021 10:24 8,7 C 8,3 C 7,2 C 95 % 1028,0 hPa 0,0 l/m 0 min 0 min 26 W/m 6,4 km/h (2 Bft) 95,65 %
13.12.2021 10:26 8,7 C 8,3 C 7,2 C 95 % 1028,0 hPa 0,0 l/m 0 min 0 min 26 W/m 9,7 km/h (2 Bft) 95,74 %
13.12.2021 10:28 8,7 C 8,3 C 7,2 C 95 % 1028,0 hPa 0,0 l/m 0 min 0 min 26 W/m 9,7 km/h (2 Bft) 95,74 %
13.12.2021 10:30 8,7 C 8,3 C 7,2 C 95 % 1027,9 hPa 0,0 l/m 0 min 0 min 28 W/m 16,1 km/h (3 Bft) 93,62 %
13.12.2021 10:32 8,7 C 8,3 C 7,2 C 95 % 1028,0 hPa 0,0 l/m 0 min 0 min 30 W/m 12,9 km/h (3 Bft) 95,74 %
13.12.2021 10:34 8,8 C 8,3 C 7,2 C 95 % 1028,0 hPa 0,0 l/m 0 min 0 min 31 W/m 12,9 km/h (3 Bft) 95,74 %
13.12.2021 10:36 8,8 C 8,3 C 7,2 C 95 % 1028,0 hPa 0,0 l/m 0 min 0 min 32 W/m 19,3 km/h (3 Bft) 91,30 %
13.12.2021 10:38 8,8 C 8,3 C 7,2 C 95 % 1028,1 hPa 0,0 l/m 0 min 0 min 32 W/m 9,7 km/h (2 Bft) 93,62 %
13.12.2021 10:40 8,8 C 8,3 C 7,2 C 95 % 1028,1 hPa 0,0 l/m 0 min 0 min 32 W/m 19,3 km/h (3 Bft) 93,62 %
13.12.2021 10:42 8,8 C 8,3 C 7,2 C 95 % 1028,1 hPa 0,0 l/m 0 min 0 min 32 W/m 9,7 km/h (2 Bft) 95,74 %
13.12.2021 10:44 8,8 C 8,3 C 7,2 C 95 % 1028,1 hPa 0,0 l/m 0 min 0 min 32 W/m 12,9 km/h (3 Bft) 95,74 %
13.12.2021 10:46 8,8 C 8,3 C 7,2 C 95 % 1028,2 hPa 0,0 l/m 0 min 0 min 32 W/m 12,9 km/h (3 Bft) 95,74 %
13.12.2021 10:48 8,8 C 8,3 C 7,2 C 95 % 1028,2 hPa 0,0 l/m 0 min 0 min 32 W/m 6,4 km/h (2 Bft) 93,48 %
13.12.2021 10:50 8,8 C 8,3 C 7,2 C 95 % 1028,2 hPa 0,0 l/m 0 min 0 min 33 W/m 9,7 km/h (2 Bft) 95,74 %
13.12.2021 10:52 8,8 C 8,3 C 7,2 C 95 % 1028,2 hPa 0,0 l/m 0 min 0 min 36 W/m 19,3 km/h (3 Bft) 95,74 %
13.12.2021 10:54 8,8 C 8,3 C 7,2 C 95 % 1028,2 hPa 0,0 l/m 0 min 0 min 39 W/m 6,4 km/h (2 Bft) 93,62 %
13.12.2021 10:56 8,8 C 8,3 C 7,2 C 95 % 1028,3 hPa 0,0 l/m 0 min 0 min 44 W/m 12,9 km/h (3 Bft) 95,74 %
13.12.2021 10:58 8,8 C 8,3 C 7,2 C 95 % 1028,2 hPa 0,0 l/m 0 min 0 min 48 W/m 6,4 km/h (2 Bft) 95,65 %
13.12.2021 11:00 8,8 C 8,3 C 7,2 C 95 % 1028,2 hPa 0,0 l/m 0 min 0 min 55 W/m 12,9 km/h (3 Bft) 97,87 %
13.12.2021 11:02 8,8 C 8,3 C 7,2 C 95 % 1028,2 hPa 0,0 l/m 0 min 0 min 62 W/m 19,3 km/h (3 Bft) 95,74 %
13.12.2021 11:04 8,8 C 8,3 C 7,2 C 95 % 1028,2 hPa 0,0 l/m 0 min 0 min 67 W/m 12,9 km/h (3 Bft) 97,87 %
13.12.2021 11:06 8,9 C 8,3 C 7,2 C 95 % 1028,2 hPa 0,0 l/m 0 min 0 min 71 W/m 9,7 km/h (2 Bft) 97,87 %
13.12.2021 11:08 8,9 C 8,9 C 7,2 C 95 % 1028,2 hPa 0,0 l/m 0 min 0 min 75 W/m 9,7 km/h (2 Bft) 97,87 %
13.12.2021 11:10 8,9 C 8,9 C 7,2 C 95 % 1028,3 hPa 0,0 l/m 0 min 0 min 78 W/m 9,7 km/h (2 Bft) 95,65 %
13.12.2021 11:12 8,9 C 8,9 C 7,2 C 95 % 1028,3 hPa 0,0 l/m 0 min 0 min 81 W/m 12,9 km/h (3 Bft) 95,74 %
13.12.2021 11:14 8,9 C 8,9 C 7,2 C 95 % 1028,2 hPa 0,0 l/m 0 min 0 min 84 W/m 12,9 km/h (3 Bft) 97,87 %
13.12.2021 11:16 9,0 C 8,9 C 7,2 C 95 % 1028,2 hPa 0,0 l/m 0 min 0 min 83 W/m 9,7 km/h (2 Bft) 95,74 %
13.12.2021 11:18 9,0 C 8,9 C 7,2 C 95 % 1028,3 hPa 0,0 l/m 0 min 0 min 78 W/m 12,9 km/h (3 Bft) 95,74 %
13.12.2021 11:20 9,0 C 8,9 C 7,8 C 95 % 1028,2 hPa 0,0 l/m 0 min 0 min 72 W/m 16,1 km/h (3 Bft) 95,74 %
13.12.2021 11:22 9,1 C 8,9 C 7,2 C 95 % 1028,2 hPa 0,0 l/m 0 min 0 min 65 W/m 9,7 km/h (2 Bft) 95,65 %
13.12.2021 11:24 9,1 C 8,9 C 7,8 C 95 % 1028,2 hPa 0,0 l/m 0 min 0 min 61 W/m 6,4 km/h (2 Bft) 97,87 %
13.12.2021 11:26 9,1 C 8,9 C 7,2 C 95 % 1028,2 hPa 0,0 l/m 0 min 0 min 57 W/m 19,3 km/h (3 Bft) 97,87 %
13.12.2021 11:28 9,1 C 8,9 C 7,8 C 95 % 1028,2 hPa 0,0 l/m 0 min 0 min 54 W/m 16,1 km/h (3 Bft) 97,87 %
13.12.2021 11:30 9,1 C 8,9 C 7,2 C 95 % 1028,2 hPa 0,0 l/m 0 min 0 min 55 W/m 12,9 km/h (3 Bft) 97,87 %
13.12.2021 11:32 9,1 C 8,9 C 7,2 C 95 % 1028,1 hPa 0,0 l/m 0 min 0 min 58 W/m 9,7 km/h (2 Bft) 95,74 %
13.12.2021 11:34 9,1 C 8,9 C 7,2 C 95 % 1028,1 hPa 0,0 l/m 0 min 0 min 62 W/m 19,3 km/h (3 Bft) 95,65 %
13.12.2021 11:36 9,1 C 8,9 C 7,2 C 95 % 1028,2 hPa 0,0 l/m 0 min 0 min 64 W/m 16,1 km/h (3 Bft) 97,87 %
13.12.2021 11:38 9,1 C 8,9 C 7,8 C 95 % 1028,1 hPa 0,0 l/m 0 min 0 min 69 W/m 12,9 km/h (3 Bft) 97,87 %
13.12.2021 11:40 9,1 C 8,9 C 7,8 C 95 % 1028,2 hPa 0,0 l/m 0 min 0 min 72 W/m 12,9 km/h (3 Bft) 97,87 %
13.12.2021 11:42 9,2 C 8,9 C 7,8 C 95 % 1028,1 hPa 0,0 l/m 0 min 0 min 74 W/m 6,4 km/h (2 Bft) 89,36 %
13.12.2021 11:44 9,2 C 8,9 C 7,8 C 95 % 1028,2 hPa 0,0 l/m 0 min 0 min 74 W/m 9,7 km/h (2 Bft) 97,87 %
13.12.2021 11:46 9,2 C 8,9 C 7,8 C 95 % 1028,2 hPa 0,0 l/m 0 min 0 min 80 W/m 12,9 km/h (3 Bft) 97,83 %
13.12.2021 11:48 9,2 C 8,9 C 7,8 C 95 % 1028,1 hPa 0,0 l/m 0 min 0 min 83 W/m 3,2 km/h (1 Bft) 97,87 %
13.12.2021 11:50 9,2 C 8,9 C 7,8 C 95 % 1028,1 hPa 0,0 l/m 0 min 0 min 80 W/m 9,7 km/h (2 Bft) 97,87 %
13.12.2021 11:52 9,2 C 8,9 C 7,8 C 95 % 1028,1 hPa 0,0 l/m 0 min 0 min 75 W/m 12,9 km/h (3 Bft) 100,00 %
13.12.2021 11:54 9,2 C 8,9 C 7,8 C 94 % 1028,1 hPa 0,0 l/m 0 min 0 min 69 W/m 6,4 km/h (2 Bft) 100,00 %
13.12.2021 11:56 9,3 C 9,4 C 7,8 C 94 % 1028,1 hPa 0,0 l/m 0 min 0 min 68 W/m 9,7 km/h (2 Bft) 100,00 %
13.12.2021 11:58 9,3 C 9,4 C 7,8 C 94 % 1028,1 hPa 0,0 l/m 0 min 0 min 65 W/m 0,0 km/h (0 Bft) 97,87 %
13.12.2021 12:00 9,3 C 9,4 C 7,8 C 94 % 1028,0 hPa 0,0 l/m 0 min 0 min 61 W/m 0,0 km/h (0 Bft) 100,00 %
13.12.2021 12:02 9,3 C 9,4 C 7,8 C 94 % 1028,0 hPa 0,0 l/m 0 min 0 min 61 W/m 0,0 km/h (0 Bft) 100,00 %
13.12.2021 12:04 9,3 C 9,4 C 7,8 C 94 % 1028,0 hPa 0,0 l/m 0 min 0 min 73 W/m 9,7 km/h (2 Bft) 100,00 %
13.12.2021 12:08 9,3 C 9,4 C 8,3 C 94 % 1028,1 hPa 0,0 l/m 0 min 0 min 119 W/m 9,7 km/h (2 Bft) 100,00 %
13.12.2021 12:10 9,4 C 10,0 C 8,3 C 94 % 1028,0 hPa 0,0 l/m 0 min 0 min 141 W/m 12,9 km/h (3 Bft) 54,55 %
13.12.2021 12:12 9,4 C 10,0 C 8,3 C 94 % 1028,1 hPa 0,0 l/m 2 min 0 min 164 W/m 6,4 km/h (2 Bft) 100,00 %
13.12.2021 12:14 9,4 C 10,0 C 8,3 C 94 % 1028,1 hPa 0,0 l/m 2 min 0 min 172 W/m 12,9 km/h (3 Bft) 100,00 %
13.12.2021 12:16 9,5 C 10,6 C 8,3 C 94 % 1028,1 hPa 0,0 l/m 2 min 0 min 173 W/m 6,4 km/h (2 Bft) 100,00 %
13.12.2021 12:18 9,6 C 10,6 C 8,3 C 94 % 1028,0 hPa 0,0 l/m 2 min 0 min 160 W/m 6,4 km/h (2 Bft) 100,00 %
13.12.2021 12:20 9,6 C 10,6 C 8,9 C 94 % 1028,1 hPa 0,0 l/m 0 min 0 min 145 W/m 12,9 km/h (3 Bft) 97,83 %
13.12.2021 12:22 9,7 C 10,6 C 8,9 C 94 % 1028,0 hPa 0,0 l/m 2 min 0 min 151 W/m 9,7 km/h (2 Bft) 100,00 %
13.12.2021 12:24 9,7 C 10,6 C 8,9 C 94 % 1028,1 hPa 0,0 l/m 2 min 0 min 162 W/m 16,1 km/h (3 Bft) 100,00 %
13.12.2021 12:26 9,7 C 10,6 C 8,9 C 94 % 1028,1 hPa 0,0 l/m 2 min 0 min 160 W/m 12,9 km/h (3 Bft) 100,00 %
13.12.2021 12:28 9,8 C 10,6 C 8,9 C 94 % 1028,1 hPa 0,0 l/m 2 min 0 min 156 W/m 16,1 km/h (3 Bft) 100,00 %
13.12.2021 12:30 9,8 C 10,6 C 8,9 C 93 % 1028,1 hPa 0,0 l/m 2 min 0 min 161 W/m 12,9 km/h (3 Bft) 100,00 %
13.12.2021 12:32 9,8 C 10,6 C 8,9 C 93 % 1028,0 hPa 0,0 l/m 0 min 0 min 150 W/m 12,9 km/h (3 Bft) 100,00 %
13.12.2021 12:34 9,9 C 10,6 C 8,9 C 93 % 1028,1 hPa 0,0 l/m 0 min 0 min 122 W/m 16,1 km/h (3 Bft) 100,00 %
13.12.2021 12:36 9,9 C 10,0 C 8,9 C 93 % 1028,0 hPa 0,0 l/m 0 min 0 min 94 W/m 16,1 km/h (3 Bft) 100,00 %
13.12.2021 12:38 9,9 C 10,0 C 8,9 C 92 % 1028,0 hPa 0,0 l/m 0 min 0 min 75 W/m 16,1 km/h (3 Bft) 100,00 %
13.12.2021 12:40 9,9 C 10,0 C 8,9 C 92 % 1028,0 hPa 0,0 l/m 0 min 0 min 74 W/m 12,9 km/h (3 Bft) 100,00 %
13.12.2021 12:42 9,9 C 10,0 C 8,9 C 92 % 1028,0 hPa 0,0 l/m 0 min 0 min 82 W/m 16,1 km/h (3 Bft) 100,00 %
13.12.2021 12:44 10,0 C 10,0 C 8,9 C 92 % 1028,0 hPa 0,0 l/m 0 min 0 min 78 W/m 9,7 km/h (2 Bft) 100,00 %
13.12.2021 12:46 9,9 C 10,0 C 8,3 C 92 % 1028,0 hPa 0,0 l/m 0 min 0 min 76 W/m 16,1 km/h (3 Bft) 97,87 %
13.12.2021 12:48 10,0 C 10,0 C 8,3 C 92 % 1028,1 hPa 0,0 l/m 0 min 0 min 84 W/m 19,3 km/h (3 Bft) 100,00 %
13.12.2021 12:50 10,0 C 10,0 C 8,3 C 92 % 1028,0 hPa 0,0 l/m 0 min 0 min 110 W/m 9,7 km/h (2 Bft) 100,00 %
13.12.2021 12:52 10,0 C 10,0 C 8,9 C 91 % 1028,1 hPa 0,0 l/m 0 min 0 min 113 W/m 16,1 km/h (3 Bft) 100,00 %
13.12.2021 12:54 10,1 C 10,0 C 8,9 C 91 % 1028,0 hPa 0,0 l/m 0 min 0 min 121 W/m 12,9 km/h (3 Bft) 97,83 %
13.12.2021 12:56 10,1 C 10,0 C 8,9 C 91 % 1027,9 hPa 0,0 l/m 0 min 0 min 119 W/m 12,9 km/h (3 Bft) 95,74 %
13.12.2021 12:58 10,1 C 10,0 C 8,9 C 91 % 1027,9 hPa 0,0 l/m 0 min 0 min 112 W/m 6,4 km/h (2 Bft) 95,74 %
13.12.2021 13:00 10,1 C 10,0 C 8,9 C 91 % 1027,9 hPa 0,0 l/m 0 min 0 min 102 W/m 19,3 km/h (3 Bft) 95,74 %
13.12.2021 13:02 10,1 C 10,0 C 8,9 C 91 % 1027,9 hPa 0,0 l/m 0 min 0 min 90 W/m 12,9 km/h (3 Bft) 95,74 %
13.12.2021 13:04 10,1 C 10,0 C 8,9 C 91 % 1028,0 hPa 0,0 l/m 0 min 0 min 88 W/m 12,9 km/h (3 Bft) 95,74 %
13.12.2021 13:06 10,2 C 10,0 C 8,9 C 91 % 1028,0 hPa 0,0 l/m 0 min 0 min 84 W/m 16,1 km/h (3 Bft) 97,83 %
13.12.2021 13:08 10,2 C 10,0 C 8,9 C 91 % 1028,0 hPa 0,0 l/m 0 min 0 min 77 W/m 16,1 km/h (3 Bft) 97,87 %
13.12.2021 13:10 10,2 C 10,0 C 8,9 C 91 % 1027,9 hPa 0,0 l/m 0 min 0 min 68 W/m 12,9 km/h (3 Bft) 95,74 %
13.12.2021 13:12 10,2 C 10,0 C 8,9 C 90 % 1027,9 hPa 0,0 l/m 0 min 0 min 66 W/m 12,9 km/h (3 Bft) 93,62 %
13.12.2021 13:14 10,2 C 10,0 C 8,9 C 90 % 1027,9 hPa 0,0 l/m 0 min 0 min 63 W/m 12,9 km/h (3 Bft) 93,62 %
13.12.2021 13:16 10,2 C 10,0 C 8,9 C 90 % 1027,9 hPa 0,0 l/m 0 min 0 min 62 W/m 16,1 km/h (3 Bft) 97,87 %
13.12.2021 13:18 10,2 C 10,0 C 8,9 C 89 % 1027,9 hPa 0,0 l/m 0 min 0 min 61 W/m 19,3 km/h (3 Bft) 97,83 %
13.12.2021 13:20 10,2 C 10,0 C 8,9 C 89 % 1027,8 hPa 0,0 l/m 0 min 0 min 57 W/m 12,9 km/h (3 Bft) 97,87 %
13.12.2021 13:22 10,2 C 10,0 C 8,9 C 88 % 1027,8 hPa 0,0 l/m 0 min 0 min 54 W/m 19,3 km/h (3 Bft) 97,87 %
13.12.2021 13:24 10,2 C 10,0 C 8,9 C 87 % 1027,8 hPa 0,0 l/m 0 min 0 min 53 W/m 19,3 km/h (3 Bft) 93,62 %
13.12.2021 13:26 10,2 C 10,0 C 8,3 C 87 % 1027,8 hPa 0,0 l/m 0 min 0 min 52 W/m 19,3 km/h (3 Bft) 91,49 %
13.12.2021 13:28 10,1 C 10,0 C 8,3 C 87 % 1027,8 hPa 0,0 l/m 0 min 0 min 51 W/m 12,9 km/h (3 Bft) 93,62 %
13.12.2021 13:30 10,1 C 10,0 C 8,3 C 87 % 1027,8 hPa 0,0 l/m 0 min 0 min 52 W/m 12,9 km/h (3 Bft) 91,30 %
13.12.2021 13:32 10,2 C 10,0 C 8,3 C 86 % 1027,8 hPa 0,0 l/m 0 min 0 min 51 W/m 19,3 km/h (3 Bft) 93,62 %
13.12.2021 13:34 10,2 C 10,0 C 8,3 C 86 % 1027,8 hPa 0,0 l/m 0 min 0 min 51 W/m 12,9 km/h (3 Bft) 93,62 %
13.12.2021 13:36 10,2 C 9,4 C 8,3 C 86 % 1027,8 hPa 0,0 l/m 0 min 0 min 48 W/m 12,9 km/h (3 Bft) 91,49 %
13.12.2021 13:38 10,2 C 9,4 C 8,3 C 86 % 1027,8 hPa 0,0 l/m 0 min 0 min 47 W/m 19,3 km/h (3 Bft) 93,62 %
13.12.2021 13:40 10,2 C 9,4 C 8,3 C 86 % 1027,8 hPa 0,0 l/m 0 min 0 min 46 W/m 19,3 km/h (3 Bft) 95,74 %
13.12.2021 13:42 10,1 C 9,4 C 8,3 C 86 % 1027,8 hPa 0,0 l/m 0 min 0 min 46 W/m 19,3 km/h (3 Bft) 95,65 %
13.12.2021 13:44 10,1 C 9,4 C 8,3 C 85 % 1027,9 hPa 0,0 l/m 0 min 0 min 46 W/m 12,9 km/h (3 Bft) 93,62 %
13.12.2021 13:46 10,1 C 9,4 C 8,3 C 85 % 1027,9 hPa 0,0 l/m 0 min 0 min 45 W/m 12,9 km/h (3 Bft) 95,74 %
13.12.2021 13:48 10,1 C 9,4 C 8,3 C 85 % 1027,9 hPa 0,0 l/m 0 min 0 min 42 W/m 9,7 km/h (2 Bft) 95,74 %
13.12.2021 13:50 10,1 C 9,4 C 8,3 C 85 % 1027,9 hPa 0,0 l/m 0 min 0 min 41 W/m 16,1 km/h (3 Bft) 95,74 %
13.12.2021 13:52 10,1 C 9,4 C 8,3 C 85 % 1027,9 hPa 0,0 l/m 0 min 0 min 40 W/m 16,1 km/h (3 Bft) 95,65 %
13.12.2021 13:54 10,1 C 9,4 C 8,3 C 85 % 1027,9 hPa 0,0 l/m 0 min 0 min 39 W/m 12,9 km/h (3 Bft) 95,74 %
13.12.2021 13:56 10,1 C 9,4 C 8,3 C 85 % 1027,8 hPa 0,0 l/m 0 min 0 min 38 W/m 16,1 km/h (3 Bft) 93,62 %
13.12.2021 13:58 10,1 C 9,4 C 8,3 C 85 % 1027,9 hPa 0,0 l/m 0 min 0 min 35 W/m 12,9 km/h (3 Bft) 95,74 %
13.12.2021 14:00 10,1 C 9,4 C 8,3 C 85 % 1027,9 hPa 0,0 l/m 0 min 0 min 33 W/m 9,7 km/h (2 Bft) 97,87 %
13.12.2021 14:02 10,1 C 9,4 C 8,3 C 85 % 1027,8 hPa 0,0 l/m 0 min 0 min 32 W/m 6,4 km/h (2 Bft) 95,74 %
13.12.2021 14:04 10,1 C 9,4 C 8,3 C 85 % 1027,8 hPa 0,0 l/m 0 min 0 min 30 W/m 3,2 km/h (1 Bft) 95,65 %
13.12.2021 14:06 10,1 C 9,4 C 8,3 C 86 % 1027,8 hPa 0,0 l/m 0 min 0 min 30 W/m 3,2 km/h (1 Bft) 95,74 %
13.12.2021 14:08 10,1 C 9,4 C 8,3 C 86 % 1027,8 hPa 0,0 l/m 0 min 0 min 30 W/m 12,9 km/h (3 Bft) 97,87 %
13.12.2021 14:10 10,1 C 9,4 C 8,3 C 86 % 1027,8 hPa 0,0 l/m 0 min 0 min 30 W/m 12,9 km/h (3 Bft) 97,87 %
13.12.2021 14:12 10,1 C 9,4 C 8,3 C 86 % 1027,8 hPa 0,0 l/m 0 min 0 min 28 W/m 16,1 km/h (3 Bft) 97,87 %
13.12.2021 14:14 10,0 C 9,4 C 8,3 C 86 % 1027,8 hPa 0,0 l/m 0 min 0 min 28 W/m 9,7 km/h (2 Bft) 95,74 %
13.12.2021 14:16 10,0 C 9,4 C 7,8 C 86 % 1027,8 hPa 0,0 l/m 0 min 0 min 27 W/m 3,2 km/h (1 Bft) 100,00 %
13.12.2021 14:18 10,0 C 9,4 C 7,8 C 86 % 1027,8 hPa 0,0 l/m 0 min 0 min 26 W/m 3,2 km/h (1 Bft) 97,87 %
13.12.2021 14:20 10,0 C 9,4 C 7,8 C 86 % 1027,8 hPa 0,0 l/m 0 min 0 min 26 W/m 6,4 km/h (2 Bft) 100,00 %
13.12.2021 14:22 10,0 C 9,4 C 7,8 C 86 % 1027,8 hPa 0,0 l/m 0 min 0 min 25 W/m 9,7 km/h (2 Bft) 97,87 %
13.12.2021 14:24 10,0 C 9,4 C 7,8 C 86 % 1027,8 hPa 0,0 l/m 0 min 0 min 25 W/m 3,2 km/h (1 Bft) 100,00 %
13.12.2021 14:26 10,0 C 9,4 C 7,8 C 86 % 1027,8 hPa 0,0 l/m 0 min 0 min 25 W/m 6,4 km/h (2 Bft) 100,00 %
13.12.2021 14:28 10,0 C 9,4 C 7,8 C 86 % 1027,8 hPa 0,0 l/m 0 min 0 min 25 W/m 6,4 km/h (2 Bft) 100,00 %
13.12.2021 14:30 10,0 C 9,4 C 7,8 C 87 % 1027,8 hPa 0,0 l/m 0 min 0 min 25 W/m 6,4 km/h (2 Bft) 100,00 %
13.12.2021 14:32 9,9 C 9,4 C 7,8 C 87 % 1027,7 hPa 0,0 l/m 0 min 0 min 26 W/m 6,4 km/h (2 Bft) 100,00 %
13.12.2021 14:34 9,9 C 9,4 C 7,8 C 87 % 1027,7 hPa 0,0 l/m 0 min 0 min 28 W/m 6,4 km/h (2 Bft) 100,00 %
13.12.2021 14:36 9,9 C 9,4 C 7,8 C 87 % 1027,8 hPa 0,0 l/m 0 min 0 min 30 W/m 6,4 km/h (2 Bft) 100,00 %
13.12.2021 14:38 9,9 C 9,4 C 7,8 C 87 % 1027,8 hPa 0,0 l/m 0 min 0 min 30 W/m 3,2 km/h (1 Bft) 100,00 %
13.12.2021 14:40 9,9 C 9,4 C 7,8 C 87 % 1027,8 hPa 0,0 l/m 0 min 0 min 30 W/m 6,4 km/h (2 Bft) 100,00 %
13.12.2021 14:42 9,9 C 9,4 C 7,8 C 87 % 1027,8 hPa 0,0 l/m 0 min 0 min 30 W/m 6,4 km/h (2 Bft) 100,00 %
13.12.2021 14:44 9,9 C 9,4 C 7,8 C 87 % 1027,7 hPa 0,0 l/m 0 min 0 min 30 W/m 6,4 km/h (2 Bft) 100,00 %
13.12.2021 14:46 9,9 C 9,4 C 7,8 C 87 % 1027,7 hPa 0,0 l/m 0 min 0 min 30 W/m 6,4 km/h (2 Bft) 100,00 %
13.12.2021 14:48 9,9 C 9,4 C 7,8 C 87 % 1027,7 hPa 0,0 l/m 0 min 0 min 30 W/m 6,4 km/h (2 Bft) 100,00 %
13.12.2021 14:50 9,9 C 9,4 C 7,8 C 88 % 1027,7 hPa 0,0 l/m 0 min 0 min 30 W/m 9,7 km/h (2 Bft) 100,00 %
13.12.2021 14:52 9,9 C 9,4 C 7,8 C 88 % 1027,7 hPa 0,0 l/m 0 min 0 min 29 W/m 12,9 km/h (3 Bft) 100,00 %
13.12.2021 14:54 9,9 C 9,4 C 7,8 C 88 % 1027,8 hPa 0,0 l/m 0 min 0 min 28 W/m 6,4 km/h (2 Bft) 100,00 %
13.12.2021 14:56 9,9 C 9,4 C 7,8 C 88 % 1027,8 hPa 0,0 l/m 0 min 0 min 26 W/m 6,4 km/h (2 Bft) 100,00 %
13.12.2021 14:58 9,9 C 8,9 C 7,8 C 88 % 1027,8 hPa 0,0 l/m 0 min 0 min 25 W/m 6,4 km/h (2 Bft) 100,00 %
13.12.2021 15:00 9,8 C 8,9 C 7,8 C 88 % 1027,8 hPa 0,0 l/m 0 min 0 min 25 W/m 6,4 km/h (2 Bft) 100,00 %
13.12.2021 15:02 9,8 C 8,9 C 7,8 C 88 % 1027,8 hPa 0,0 l/m 0 min 0 min 25 W/m 6,4 km/h (2 Bft) 100,00 %
13.12.2021 15:04 9,8 C 8,9 C 7,8 C 88 % 1027,8 hPa 0,0 l/m 0 min 0 min 25 W/m 6,4 km/h (2 Bft) 100,00 %
13.12.2021 15:06 9,8 C 8,9 C 7,8 C 88 % 1027,8 hPa 0,0 l/m 0 min 0 min 23 W/m 9,7 km/h (2 Bft) 100,00 %
13.12.2021 15:08 9,8 C 8,9 C 7,8 C 88 % 1027,8 hPa 0,0 l/m 0 min 0 min 22 W/m 9,7 km/h (2 Bft) 100,00 %
13.12.2021 15:10 9,8 C 8,9 C 7,8 C 88 % 1027,7 hPa 0,0 l/m 0 min 0 min 21 W/m 9,7 km/h (2 Bft) 97,87 %
13.12.2021 15:12 9,8 C 8,9 C 7,8 C 88 % 1027,8 hPa 0,0 l/m 0 min 0 min 20 W/m 9,7 km/h (2 Bft) 100,00 %
13.12.2021 15:14 9,8 C 8,9 C 7,8 C 88 % 1027,8 hPa 0,0 l/m 0 min 0 min 19 W/m 12,9 km/h (3 Bft) 100,00 %
13.12.2021 15:16 9,8 C 8,9 C 7,8 C 88 % 1027,7 hPa 0,0 l/m 0 min 0 min 19 W/m 6,4 km/h (2 Bft) 97,87 %
13.12.2021 15:18 9,8 C 8,9 C 7,8 C 88 % 1027,7 hPa 0,0 l/m 0 min 0 min 18 W/m 6,4 km/h (2 Bft) 100,00 %
13.12.2021 15:20 9,8 C 8,9 C 7,8 C 89 % 1027,7 hPa 0,0 l/m 0 min 0 min 18 W/m 6,4 km/h (2 Bft) 100,00 %
13.12.2021 15:22 9,7 C 8,9 C 7,8 C 89 % 1027,7 hPa 0,0 l/m 0 min 0 min 18 W/m 3,2 km/h (1 Bft) 100,00 %
13.12.2021 15:24 9,7 C 8,9 C 7,8 C 89 % 1027,8 hPa 0,0 l/m 0 min 0 min 18 W/m 6,4 km/h (2 Bft) 100,00 %
13.12.2021 15:26 9,7 C 8,9 C 7,8 C 89 % 1027,7 hPa 0,0 l/m 0 min 0 min 16 W/m 6,4 km/h (2 Bft) 97,83 %
13.12.2021 15:28 9,7 C 8,9 C 7,8 C 89 % 1027,7 hPa 0,0 l/m 0 min 0 min 16 W/m 6,4 km/h (2 Bft) 100,00 %
13.12.2021 15:30 9,7 C 8,9 C 7,8 C 89 % 1027,8 hPa 0,0 l/m 0 min 0 min 16 W/m 6,4 km/h (2 Bft) 100,00 %
13.12.2021 15:32 9,7 C 8,9 C 7,8 C 89 % 1027,8 hPa 0,0 l/m 0 min 0 min 14 W/m 6,4 km/h (2 Bft) 97,87 %
13.12.2021 15:34 9,7 C 8,9 C 7,8 C 89 % 1027,8 hPa 0,0 l/m 0 min 0 min 12 W/m 12,9 km/h (3 Bft) 97,87 %
13.12.2021 15:36 9,7 C 8,9 C 7,2 C 89 % 1027,8 hPa 0,0 l/m 0 min 0 min 12 W/m 6,4 km/h (2 Bft) 97,87 %
13.12.2021 15:38 9,7 C 8,9 C 7,2 C 89 % 1027,8 hPa 0,0 l/m 0 min 0 min 12 W/m 9,7 km/h (2 Bft) 95,65 %
13.12.2021 15:40 9,6 C 8,9 C 7,2 C 89 % 1027,8 hPa 0,0 l/m 0 min 0 min 12 W/m 6,4 km/h (2 Bft) 95,74 %
13.12.2021 15:42 9,6 C 8,9 C 7,2 C 89 % 1027,8 hPa 0,0 l/m 0 min 0 min 12 W/m 9,7 km/h (2 Bft) 95,74 %
13.12.2021 15:44 9,6 C 8,9 C 7,2 C 89 % 1027,8 hPa 0,0 l/m 0 min 0 min 12 W/m 9,7 km/h (2 Bft) 95,74 %
13.12.2021 15:46 9,6 C 8,9 C 7,2 C 89 % 1027,8 hPa 0,0 l/m 0 min 0 min 12 W/m 9,7 km/h (2 Bft) 95,74 %
13.12.2021 15:48 9,6 C 8,9 C 7,2 C 89 % 1027,9 hPa 0,0 l/m 0 min 0 min 11 W/m 12,9 km/h (3 Bft) 93,62 %
13.12.2021 15:50 9,6 C 8,9 C 7,2 C 89 % 1027,8 hPa 0,0 l/m 0 min 0 min 10 W/m 16,1 km/h (3 Bft) 95,65 %
13.12.2021 15:52 9,6 C 8,9 C 7,2 C 89 % 1027,9 hPa 0,0 l/m 0 min 0 min 9 W/m 9,7 km/h (2 Bft) 93,62 %
13.12.2021 15:54 9,6 C 8,9 C 7,2 C 89 % 1027,9 hPa 0,0 l/m 0 min 0 min 9 W/m 9,7 km/h (2 Bft) 95,74 %
13.12.2021 15:56 9,6 C 8,9 C 7,2 C 89 % 1027,9 hPa 0,0 l/m 0 min 0 min 9 W/m 6,4 km/h (2 Bft) 95,74 %
13.12.2021 15:58 9,6 C 8,9 C 7,2 C 89 % 1027,8 hPa 0,0 l/m 0 min 0 min 9 W/m 9,7 km/h (2 Bft) 95,74 %
13.12.2021 16:00 9,6 C 8,9 C 7,2 C 89 % 1027,8 hPa 0,0 l/m 0 min 0 min 9 W/m 9,7 km/h (2 Bft) 93,48 %
13.12.2021 16:02 9,6 C 8,9 C 7,2 C 89 % 1027,8 hPa 0,0 l/m 0 min 0 min 8 W/m 9,7 km/h (2 Bft) 95,74 %
13.12.2021 16:04 9,5 C 8,9 C 7,2 C 89 % 1027,9 hPa 0,0 l/m 0 min 0 min 7 W/m 16,1 km/h (3 Bft) 95,74 %
13.12.2021 16:06 9,5 C 8,9 C 7,2 C 89 % 1027,9 hPa 0,0 l/m 0 min 0 min 7 W/m 9,7 km/h (2 Bft) 95,74 %
13.12.2021 16:08 9,5 C 8,9 C 7,2 C 89 % 1027,9 hPa 0,0 l/m 0 min 0 min 5 W/m 9,7 km/h (2 Bft) 95,74 %
13.12.2021 16:10 9,5 C 8,9 C 7,2 C 89 % 1027,9 hPa 0,0 l/m 0 min 0 min 5 W/m 16,1 km/h (3 Bft) 95,74 %
13.12.2021 16:12 9,5 C 8,9 C 7,2 C 89 % 1027,9 hPa 0,0 l/m 0 min 0 min 5 W/m 9,7 km/h (2 Bft) 95,65 %
13.12.2021 16:14 9,5 C 8,9 C 7,2 C 89 % 1027,9 hPa 0,0 l/m 0 min 0 min 4 W/m 6,4 km/h (2 Bft) 95,74 %
13.12.2021 16:16 9,5 C 8,9 C 7,2 C 89 % 1027,8 hPa 0,0 l/m 0 min 0 min 0 W/m 6,4 km/h (2 Bft) 95,74 %
13.12.2021 16:18 9,4 C 8,9 C 7,2 C 89 % 1027,8 hPa 0,0 l/m 0 min 0 min 0 W/m 12,9 km/h (3 Bft) 95,74 %
13.12.2021 16:20 9,4 C 8,9 C 7,2 C 89 % 1027,7 hPa 0,0 l/m 0 min 0 min 0 W/m 3,2 km/h (1 Bft) 95,74 %
13.12.2021 16:22 9,4 C 8,9 C 7,2 C 89 % 1027,7 hPa 0,0 l/m 0 min 0 min 0 W/m 9,7 km/h (2 Bft) 95,74 %
13.12.2021 16:24 9,4 C 8,9 C 7,2 C 89 % 1027,7 hPa 0,0 l/m 0 min 0 min 0 W/m 9,7 km/h (2 Bft) 93,48 %
13.12.2021 16:26 9,4 C 8,9 C 7,2 C 89 % 1027,7 hPa 0,0 l/m 0 min 0 min 0 W/m 6,4 km/h (2 Bft) 97,87 %
13.12.2021 16:28 9,4 C 8,9 C 7,2 C 89 % 1027,7 hPa 0,0 l/m 0 min 0 min 0 W/m 6,4 km/h (2 Bft) 97,87 %
13.12.2021 16:30 9,4 C 8,9 C 7,2 C 89 % 1027,8 hPa 0,0 l/m 0 min 0 min 0 W/m 9,7 km/h (2 Bft) 97,87 %
13.12.2021 16:32 9,4 C 8,9 C 7,2 C 89 % 1027,8 hPa 0,0 l/m 0 min 0 min 0 W/m 3,2 km/h (1 Bft) 95,74 %
13.12.2021 16:34 9,4 C 8,3 C 7,2 C 89 % 1027,8 hPa 0,0 l/m 0 min 0 min 0 W/m 6,4 km/h (2 Bft) 97,87 %
13.12.2021 16:36 9,4 C 8,9 C 7,2 C 89 % 1027,8 hPa 0,0 l/m 0 min 0 min 0 W/m 6,4 km/h (2 Bft) 97,83 %
13.12.2021 16:38 9,3 C 8,3 C 7,2 C 89 % 1027,9 hPa 0,0 l/m 0 min 0 min 0 W/m 3,2 km/h (1 Bft) 95,74 %
13.12.2021 16:40 9,3 C 8,3 C 7,2 C 89 % 1027,9 hPa 0,0 l/m 0 min 0 min 0 W/m 6,4 km/h (2 Bft) 97,87 %
13.12.2021 16:42 9,3 C 8,3 C 7,2 C 89 % 1027,8 hPa 0,0 l/m 0 min 0 min 0 W/m 6,4 km/h (2 Bft) 95,74 %
13.12.2021 16:44 9,3 C 8,3 C 7,2 C 89 % 1027,8 hPa 0,0 l/m 0 min 0 min 0 W/m 3,2 km/h (1 Bft) 97,87 %
13.12.2021 16:46 9,3 C 8,3 C 7,2 C 89 % 1027,8 hPa 0,0 l/m 0 min 0 min 0 W/m 6,4 km/h (2 Bft) 97,83 %
13.12.2021 16:48 9,3 C 8,3 C 7,2 C 89 % 1027,8 hPa 0,0 l/m 0 min 0 min 0 W/m 3,2 km/h (1 Bft) 97,87 %
13.12.2021 16:50 9,3 C 8,3 C 7,2 C 89 % 1027,9 hPa 0,0 l/m 0 min 0 min 0 W/m 12,9 km/h (3 Bft) 97,87 %
13.12.2021 16:52 9,3 C 8,3 C 7,2 C 89 % 1027,8 hPa 0,0 l/m 0 min 0 min 0 W/m 12,9 km/h (3 Bft) 97,87 %
13.12.2021 16:54 9,3 C 8,3 C 7,2 C 89 % 1027,8 hPa 0,0 l/m 0 min 0 min 0 W/m 3,2 km/h (1 Bft) 95,74 %
13.12.2021 16:56 9,3 C 8,3 C 7,2 C 89 % 1027,9 hPa 0,0 l/m 0 min 0 min 0 W/m 6,4 km/h (2 Bft) 97,87 %
13.12.2021 16:58 9,2 C 8,3 C 7,2 C 89 % 1027,8 hPa 0,0 l/m 0 min 0 min 0 W/m 9,7 km/h (2 Bft) 95,65 %
13.12.2021 17:00 9,2 C 8,3 C 7,2 C 89 % 1027,8 hPa 0,0 l/m 0 min 0 min 0 W/m 6,4 km/h (2 Bft) 100,00 %
13.12.2021 17:02 9,2 C 8,3 C 7,2 C 89 % 1027,8 hPa 0,0 l/m 0 min 0 min 0 W/m 12,9 km/h (3 Bft) 100,00 %
13.12.2021 17:04 9,2 C 8,3 C 7,2 C 89 % 1027,8 hPa 0,0 l/m 0 min 0 min 0 W/m 9,7 km/h (2 Bft) 100,00 %
13.12.2021 17:06 9,2 C 8,3 C 7,2 C 89 % 1027,8 hPa 0,0 l/m 0 min 0 min 0 W/m 6,4 km/h (2 Bft) 100,00 %
13.12.2021 17:08 9,2 C 8,3 C 7,2 C 89 % 1027,9 hPa 0,0 l/m 0 min 0 min 0 W/m 6,4 km/h (2 Bft) 100,00 %
13.12.2021 17:10 9,2 C 8,3 C 7,2 C 89 % 1027,9 hPa 0,0 l/m 0 min 0 min 0 W/m 12,9 km/h (3 Bft) 100,00 %
13.12.2021 17:12 9,2 C 8,3 C 6,7 C 89 % 1027,9 hPa 0,0 l/m 0 min 0 min 0 W/m 3,2 km/h (1 Bft) 97,87 %
13.12.2021 17:14 9,2 C 8,3 C 6,7 C 89 % 1027,9 hPa 0,0 l/m 0 min 0 min 0 W/m 6,4 km/h (2 Bft) 97,87 %
13.12.2021 17:16 9,2 C 8,3 C 6,7 C 89 % 1028,0 hPa 0,0 l/m 0 min 0 min 0 W/m 9,7 km/h (2 Bft) 100,00 %
13.12.2021 17:18 9,2 C 8,3 C 6,7 C 89 % 1028,0 hPa 0,0 l/m 0 min 0 min 0 W/m 9,7 km/h (2 Bft) 97,87 %
13.12.2021 17:20 9,2 C 8,3 C 6,7 C 89 % 1027,9 hPa 0,0 l/m 0 min 0 min 0 W/m 12,9 km/h (3 Bft) 100,00 %
13.12.2021 17:22 9,2 C 8,3 C 6,7 C 89 % 1027,9 hPa 0,0 l/m 0 min 0 min 0 W/m 6,4 km/h (2 Bft) 100,00 %
13.12.2021 17:24 9,1 C 8,3 C 6,7 C 89 % 1027,9 hPa 0,0 l/m 0 min 0 min 0 W/m 9,7 km/h (2 Bft) 97,87 %
13.12.2021 17:26 9,1 C 8,3 C 6,7 C 89 % 1027,9 hPa 0,0 l/m 0 min 0 min 0 W/m 6,4 km/h (2 Bft) 97,87 %
13.12.2021 17:28 9,1 C 8,3 C 6,7 C 89 % 1027,8 hPa 0,0 l/m 0 min 0 min 0 W/m 12,9 km/h (3 Bft) 97,87 %
13.12.2021 17:30 9,1 C 8,3 C 6,7 C 89 % 1027,9 hPa 0,0 l/m 0 min 0 min 0 W/m 12,9 km/h (3 Bft) 95,74 %
13.12.2021 17:32 9,1 C 8,3 C 6,7 C 89 % 1028,0 hPa 0,0 l/m 0 min 0 min 0 W/m 12,9 km/h (3 Bft) 95,74 %
13.12.2021 17:34 9,1 C 8,3 C 6,7 C 89 % 1027,9 hPa 0,0 l/m 0 min 0 min 0 W/m 9,7 km/h (2 Bft) 97,83 %
13.12.2021 17:36 9,1 C 8,3 C 6,7 C 88 % 1027,9 hPa 0,0 l/m 0 min 0 min 0 W/m 12,9 km/h (3 Bft) 97,87 %
13.12.2021 17:38 9,1 C 8,3 C 6,7 C 88 % 1027,9 hPa 0,0 l/m 0 min 0 min 0 W/m 16,1 km/h (3 Bft) 97,87 %
13.12.2021 17:40 9,1 C 8,3 C 6,7 C 88 % 1028,0 hPa 0,0 l/m 0 min 0 min 0 W/m 16,1 km/h (3 Bft) 97,87 %
13.12.2021 17:42 9,1 C 8,3 C 6,7 C 88 % 1028,0 hPa 0,0 l/m 0 min 0 min 0 W/m 9,7 km/h (2 Bft) 97,87 %
13.12.2021 17:44 9,1 C 8,3 C 6,7 C 88 % 1028,0 hPa 0,0 l/m 0 min 0 min 0 W/m 9,7 km/h (2 Bft) 95,74 %
13.12.2021 17:46 9,1 C 8,3 C 6,7 C 88 % 1028,0 hPa 0,0 l/m 0 min 0 min 0 W/m 9,7 km/h (2 Bft) 97,83 %
13.12.2021 17:48 9,1 C 8,3 C 6,7 C 88 % 1028,0 hPa 0,0 l/m 0 min 0 min 0 W/m 12,9 km/h (3 Bft) 97,87 %
13.12.2021 17:50 9,1 C 8,3 C 6,7 C 88 % 1028,0 hPa 0,0 l/m 0 min 0 min 0 W/m 12,9 km/h (3 Bft) 97,87 %
13.12.2021 17:52 9,1 C 8,3 C 6,7 C 88 % 1028,0 hPa 0,0 l/m 0 min 0 min 0 W/m 9,7 km/h (2 Bft) 97,87 %
13.12.2021 17:54 9,1 C 8,3 C 6,7 C 88 % 1028,0 hPa 0,0 l/m 0 min 0 min 0 W/m 12,9 km/h (3 Bft) 97,87 %
13.12.2021 17:56 9,1 C 8,3 C 6,7 C 88 % 1028,0 hPa 0,0 l/m 0 min 0 min 0 W/m 19,3 km/h (3 Bft) 97,83 %
13.12.2021 17:58 9,1 C 8,3 C 6,7 C 88 % 1028,0 hPa 0,0 l/m 0 min 0 min 0 W/m 12,9 km/h (3 Bft) 97,87 %
13.12.2021 18:00 9,1 C 8,3 C 6,7 C 88 % 1028,0 hPa 0,0 l/m 0 min 0 min 0 W/m 9,7 km/h (2 Bft) 97,87 %
13.12.2021 18:02 9,0 C 8,3 C 6,7 C 88 % 1027,9 hPa 0,0 l/m 0 min 0 min 0 W/m 6,4 km/h (2 Bft) 97,87 %
13.12.2021 18:04 9,0 C 8,3 C 6,7 C 88 % 1027,9 hPa 0,0 l/m 0 min 0 min 0 W/m 19,3 km/h (3 Bft) 97,87 %
13.12.2021 18:07 9,0 C 8,3 C 6,7 C 87 % 1027,9 hPa 0,0 l/m 0 min 0 min 0 W/m 9,7 km/h (2 Bft) 100,00 %
13.12.2021 18:08 9,0 C 8,3 C 6,7 C 87 % 1027,9 hPa 0,0 l/m 0 min 0 min 0 W/m 9,7 km/h (2 Bft) 100,00 %
13.12.2021 18:10 9,0 C 8,3 C 6,7 C 87 % 1027,9 hPa 0,0 l/m 0 min 0 min 0 W/m 9,7 km/h (2 Bft) 100,00 %
13.12.2021 18:12 8,9 C 8,3 C 6,7 C 87 % 1028,0 hPa 0,0 l/m 0 min 0 min 0 W/m 9,7 km/h (2 Bft) 100,00 %
13.12.2021 18:14 8,9 C 8,3 C 6,7 C 87 % 1027,9 hPa 0,0 l/m 0 min 0 min 0 W/m 12,9 km/h (3 Bft) 100,00 %
13.12.2021 18:16 8,9 C 8,3 C 6,7 C 87 % 1027,9 hPa 0,0 l/m 0 min 0 min 0 W/m 6,4 km/h (2 Bft) 97,87 %
13.12.2021 18:18 8,9 C 8,3 C 6,7 C 87 % 1028,0 hPa 0,0 l/m 0 min 0 min 0 W/m 9,7 km/h (2 Bft) 100,00 %
13.12.2021 18:20 8,9 C 8,3 C 6,7 C 87 % 1028,0 hPa 0,0 l/m 0 min 0 min 0 W/m 6,4 km/h (2 Bft) 100,00 %
13.12.2021 18:22 8,9 C 8,3 C 6,7 C 87 % 1028,0 hPa 0,0 l/m 0 min 0 min 0 W/m 12,9 km/h (3 Bft) 97,87 %
13.12.2021 18:24 8,9 C 8,3 C 6,7 C 87 % 1028,0 hPa 0,0 l/m 0 min 0 min 0 W/m 16,1 km/h (3 Bft) 100,00 %
13.12.2021 18:26 8,9 C 8,3 C 6,7 C 87 % 1028,0 hPa 0,0 l/m 0 min 0 min 0 W/m 16,1 km/h (3 Bft) 100,00 %
13.12.2021 18:28 8,9 C 8,3 C 6,7 C 87 % 1028,0 hPa 0,0 l/m 0 min 0 min 0 W/m 9,7 km/h (2 Bft) 100,00 %
13.12.2021 18:30 8,9 C 8,3 C 6,7 C 87 % 1028,0 hPa 0,0 l/m 0 min 0 min 0 W/m 12,9 km/h (3 Bft) 100,00 %
13.12.2021 18:32 8,9 C 8,3 C 6,7 C 87 % 1028,0 hPa 0,0 l/m 0 min 0 min 0 W/m 9,7 km/h (2 Bft) 95,65 %
13.12.2021 18:34 8,8 C 8,3 C 6,7 C 87 % 1028,0 hPa 0,0 l/m 0 min 0 min 0 W/m 12,9 km/h (3 Bft) 100,00 %
13.12.2021 18:36 8,8 C 8,3 C 6,7 C 87 % 1027,9 hPa 0,0 l/m 0 min 0 min 0 W/m 16,1 km/h (3 Bft) 95,74 %
13.12.2021 18:38 8,8 C 8,3 C 6,7 C 87 % 1028,0 hPa 0,0 l/m 0 min 0 min 0 W/m 12,9 km/h (3 Bft) 97,87 %
13.12.2021 18:40 8,8 C 8,3 C 6,7 C 87 % 1028,0 hPa 0,0 l/m 0 min 0 min 0 W/m 9,7 km/h (2 Bft) 97,87 %
13.12.2021 18:42 8,8 C 8,3 C 6,7 C 86 % 1028,0 hPa 0,0 l/m 0 min 0 min 0 W/m 12,9 km/h (3 Bft) 95,65 %
13.12.2021 18:44 8,8 C 8,3 C 6,7 C 86 % 1028,0 hPa 0,0 l/m 0 min 0 min 0 W/m 12,9 km/h (3 Bft) 97,87 %
13.12.2021 18:46 8,8 C 8,3 C 6,7 C 86 % 1027,9 hPa 0,0 l/m 0 min 0 min 0 W/m 12,9 km/h (3 Bft) 95,74 %
13.12.2021 18:48 8,8 C 8,3 C 6,7 C 86 % 1028,0 hPa 0,0 l/m 0 min 0 min 0 W/m 16,1 km/h (3 Bft) 97,87 %
13.12.2021 18:50 8,8 C 8,3 C 6,7 C 86 % 1028,0 hPa 0,0 l/m 0 min 0 min 0 W/m 12,9 km/h (3 Bft) 97,87 %
13.12.2021 18:52 8,8 C 8,3 C 6,7 C 86 % 1028,1 hPa 0,0 l/m 0 min 0 min 0 W/m 12,9 km/h (3 Bft) 95,74 %
13.12.2021 18:54 8,8 C 8,3 C 6,7 C 86 % 1028,1 hPa 0,0 l/m 0 min 0 min 0 W/m 6,4 km/h (2 Bft) 95,65 %
13.12.2021 18:56 8,8 C 8,3 C 6,7 C 86 % 1028,1 hPa 0,0 l/m 0 min 0 min 0 W/m 9,7 km/h (2 Bft) 95,74 %
13.12.2021 18:58 8,8 C 8,3 C 6,7 C 86 % 1028,1 hPa 0,0 l/m 0 min 0 min 0 W/m 9,7 km/h (2 Bft) 95,65 %
13.12.2021 19:00 8,8 C 8,3 C 6,1 C 86 % 1028,1 hPa 0,0 l/m 0 min 0 min 0 W/m 16,1 km/h (3 Bft) 91,49 %
13.12.2021 19:02 8,8 C 8,3 C 6,1 C 86 % 1028,1 hPa 0,0 l/m 0 min 0 min 0 W/m 16,1 km/h (3 Bft) 93,62 %
13.12.2021 19:04 8,8 C 8,3 C 6,1 C 86 % 1028,2 hPa 0,0 l/m 0 min 0 min 0 W/m 16,1 km/h (3 Bft) 93,62 %
13.12.2021 19:06 8,8 C 8,3 C 6,1 C 86 % 1028,1 hPa 0,0 l/m 0 min 0 min 0 W/m 12,9 km/h (3 Bft) 95,65 %
13.12.2021 19:08 8,8 C 8,3 C 6,1 C 86 % 1028,1 hPa 0,0 l/m 0 min 0 min 0 W/m 6,4 km/h (2 Bft) 95,74 %
13.12.2021 19:10 8,8 C 8,3 C 6,1 C 86 % 1028,1 hPa 0,0 l/m 0 min 0 min 0 W/m 6,4 km/h (2 Bft) 95,65 %
13.12.2021 19:12 8,8 C 8,3 C 6,1 C 86 % 1028,1 hPa 0,0 l/m 0 min 0 min 0 W/m 6,4 km/h (2 Bft) 95,74 %
13.12.2021 19:14 8,8 C 8,3 C 6,1 C 86 % 1028,1 hPa 0,0 l/m 0 min 0 min 0 W/m 9,7 km/h (2 Bft) 95,74 %
13.12.2021 19:16 8,8 C 8,3 C 6,1 C 86 % 1028,1 hPa 0,0 l/m 0 min 0 min 0 W/m 3,2 km/h (1 Bft) 93,62 %
13.12.2021 19:18 8,8 C 7,8 C 6,1 C 86 % 1028,1 hPa 0,0 l/m 0 min 0 min 0 W/m 6,4 km/h (2 Bft) 95,65 %
13.12.2021 19:20 8,8 C 7,8 C 6,1 C 86 % 1028,1 hPa 0,0 l/m 0 min 0 min 0 W/m 3,2 km/h (1 Bft) 97,87 %
13.12.2021 19:22 8,8 C 7,8 C 6,1 C 86 % 1028,1 hPa 0,0 l/m 0 min 0 min 0 W/m 6,4 km/h (2 Bft) 95,74 %
13.12.2021 19:24 8,8 C 7,8 C 6,1 C 86 % 1028,1 hPa 0,0 l/m 0 min 0 min 0 W/m 3,2 km/h (1 Bft) 97,87 %
13.12.2021 19:26 8,8 C 7,8 C 6,1 C 86 % 1028,0 hPa 0,0 l/m 0 min 0 min 0 W/m 6,4 km/h (2 Bft) 95,74 %
13.12.2021 19:28 8,7 C 7,8 C 6,1 C 86 % 1028,1 hPa 0,0 l/m 0 min 0 min 0 W/m 6,4 km/h (2 Bft) 93,62 %
13.12.2021 19:30 8,7 C 7,8 C 6,1 C 86 % 1028,0 hPa 0,0 l/m 0 min 0 min 0 W/m 6,4 km/h (2 Bft) 95,65 %
13.12.2021 19:32 8,7 C 7,8 C 6,1 C 86 % 1028,1 hPa 0,0 l/m 0 min 0 min 0 W/m 3,2 km/h (1 Bft) 95,74 %
13.12.2021 19:34 8,7 C 7,8 C 6,1 C 86 % 1028,1 hPa 0,0 l/m 0 min 0 min 0 W/m 9,7 km/h (2 Bft) 91,49 %
13.12.2021 19:36 8,7 C 7,8 C 6,1 C 86 % 1028,1 hPa 0,0 l/m 0 min 0 min 0 W/m 6,4 km/h (2 Bft) 97,87 %
13.12.2021 19:38 8,7 C 7,8 C 6,1 C 86 % 1028,1 hPa 0,0 l/m 0 min 0 min 0 W/m 6,4 km/h (2 Bft) 93,62 %
13.12.2021 19:40 8,7 C 7,8 C 6,1 C 86 % 1028,1 hPa 0,0 l/m 0 min 0 min 0 W/m 9,7 km/h (2 Bft) 97,87 %
13.12.2021 19:42 8,7 C 7,8 C 6,1 C 86 % 1028,0 hPa 0,0 l/m 0 min 0 min 0 W/m 9,7 km/h (2 Bft) 97,83 %
13.12.2021 19:44 8,7 C 7,8 C 6,1 C 86 % 1028,0 hPa 0,0 l/m 0 min 0 min 0 W/m 3,2 km/h (1 Bft) 95,74 %
13.12.2021 19:46 8,7 C 7,8 C 6,1 C 86 % 1028,0 hPa 0,0 l/m 0 min 0 min 0 W/m 6,4 km/h (2 Bft) 97,87 %
13.12.2021 19:48 8,7 C 7,8 C 6,1 C 86 % 1028,0 hPa 0,0 l/m 0 min 0 min 0 W/m 6,4 km/h (2 Bft) 97,87 %
13.12.2021 19:50 8,7 C 7,8 C 6,1 C 86 % 1028,0 hPa 0,0 l/m 0 min 0 min 0 W/m 6,4 km/h (2 Bft) 97,87 %
13.12.2021 19:52 8,6 C 7,8 C 6,1 C 86 % 1028,0 hPa 0,0 l/m 0 min 0 min 0 W/m 6,4 km/h (2 Bft) 95,74 %
13.12.2021 19:54 8,6 C 7,8 C 6,1 C 86 % 1028,1 hPa 0,0 l/m 0 min 0 min 0 W/m 6,4 km/h (2 Bft) 97,83 %
13.12.2021 19:56 8,6 C 7,8 C 6,1 C 86 % 1028,1 hPa 0,0 l/m 0 min 0 min 0 W/m 6,4 km/h (2 Bft) 97,87 %
13.12.2021 19:58 8,6 C 7,8 C 6,1 C 86 % 1028,0 hPa 0,0 l/m 0 min 0 min 0 W/m 6,4 km/h (2 Bft) 97,87 %
13.12.2021 20:00 8,6 C 7,8 C 6,1 C 86 % 1028,0 hPa 0,0 l/m 0 min 0 min 0 W/m 6,4 km/h (2 Bft) 97,87 %
13.12.2021 20:02 8,6 C 7,8 C 6,1 C 87 % 1028,0 hPa 0,0 l/m 0 min 0 min 0 W/m 6,4 km/h (2 Bft) 100,00 %
13.12.2021 20:04 8,6 C 7,8 C 6,1 C 87 % 1028,0 hPa 0,0 l/m 0 min 0 min 0 W/m 3,2 km/h (1 Bft) 100,00 %
13.12.2021 20:06 8,6 C 7,8 C 6,1 C 87 % 1028,0 hPa 0,0 l/m 0 min 0 min 0 W/m 6,4 km/h (2 Bft) 100,00 %
13.12.2021 20:08 8,6 C 7,8 C 6,1 C 87 % 1028,0 hPa 0,0 l/m 0 min 0 min 0 W/m 9,7 km/h (2 Bft) 100,00 %
13.12.2021 20:10 8,6 C 7,8 C 6,1 C 87 % 1027,9 hPa 0,0 l/m 0 min 0 min 0 W/m 6,4 km/h (2 Bft) 97,87 %
13.12.2021 20:12 8,5 C 7,8 C 6,1 C 87 % 1027,9 hPa 0,0 l/m 0 min 0 min 0 W/m 12,9 km/h (3 Bft) 100,00 %
13.12.2021 20:14 8,5 C 7,8 C 6,1 C 87 % 1027,8 hPa 0,0 l/m 0 min 0 min 0 W/m 6,4 km/h (2 Bft) 100,00 %
13.12.2021 20:16 8,5 C 7,8 C 6,1 C 87 % 1027,8 hPa 0,0 l/m 0 min 0 min 0 W/m 12,9 km/h (3 Bft) 97,83 %
13.12.2021 20:18 8,5 C 7,8 C 6,1 C 87 % 1027,8 hPa 0,0 l/m 0 min 0 min 0 W/m 6,4 km/h (2 Bft) 100,00 %
13.12.2021 20:20 8,5 C 7,8 C 6,1 C 86 % 1027,8 hPa 0,0 l/m 0 min 0 min 0 W/m 12,9 km/h (3 Bft) 97,87 %
13.12.2021 20:22 8,5 C 7,8 C 6,1 C 86 % 1027,8 hPa 0,0 l/m 0 min 0 min 0 W/m 6,4 km/h (2 Bft) 100,00 %
13.12.2021 20:24 8,5 C 7,8 C 6,1 C 86 % 1027,7 hPa 0,0 l/m 0 min 0 min 0 W/m 6,4 km/h (2 Bft) 100,00 %
13.12.2021 20:26 8,5 C 7,8 C 6,1 C 86 % 1027,7 hPa 0,0 l/m 0 min 0 min 0 W/m 6,4 km/h (2 Bft) 100,00 %
13.12.2021 20:28 8,5 C 7,8 C 6,1 C 86 % 1027,8 hPa 0,0 l/m 0 min 0 min 0 W/m 3,2 km/h (1 Bft) 100,00 %
13.12.2021 20:30 8,5 C 7,8 C 6,1 C 86 % 1027,8 hPa 0,0 l/m 0 min 0 min 0 W/m 6,4 km/h (2 Bft) 100,00 %
13.12.2021 20:32 8,5 C 7,8 C 5,6 C 86 % 1027,8 hPa 0,0 l/m 0 min 0 min 0 W/m 6,4 km/h (2 Bft) 100,00 %
13.12.2021 20:34 8,5 C 7,8 C 5,6 C 86 % 1027,7 hPa 0,0 l/m 0 min 0 min 0 W/m 12,9 km/h (3 Bft) 100,00 %
13.12.2021 20:36 8,5 C 7,8 C 5,6 C 86 % 1027,8 hPa 0,0 l/m 0 min 0 min 0 W/m 3,2 km/h (1 Bft) 100,00 %
13.12.2021 20:38 8,5 C 7,8 C 5,6 C 86 % 1027,8 hPa 0,0 l/m 0 min 0 min 0 W/m 3,2 km/h (1 Bft) 100,00 %
13.12.2021 20:40 8,5 C 7,8 C 5,6 C 87 % 1027,9 hPa 0,0 l/m 0 min 0 min 0 W/m 6,4 km/h (2 Bft) 100,00 %
13.12.2021 20:42 8,5 C 7,8 C 5,6 C 87 % 1027,8 hPa 0,0 l/m 0 min 0 min 0 W/m 9,7 km/h (2 Bft) 100,00 %
13.12.2021 20:44 8,5 C 7,8 C 6,1 C 87 % 1027,9 hPa 0,0 l/m 0 min 0 min 0 W/m 9,7 km/h (2 Bft) 100,00 %
13.12.2021 20:46 8,5 C 7,8 C 5,6 C 86 % 1027,9 hPa 0,0 l/m 0 min 0 min 0 W/m 6,4 km/h (2 Bft) 100,00 %
13.12.2021 20:48 8,5 C 7,8 C 6,1 C 86 % 1027,8 hPa 0,0 l/m 0 min 0 min 0 W/m 6,4 km/h (2 Bft) 100,00 %
13.12.2021 20:50 8,5 C 7,8 C 6,1 C 86 % 1027,8 hPa 0,0 l/m 0 min 0 min 0 W/m 6,4 km/h (2 Bft) 100,00 %
13.12.2021 20:52 8,5 C 7,8 C 6,1 C 86 % 1027,8 hPa 0,0 l/m 0 min 0 min 0 W/m 6,4 km/h (2 Bft) 100,00 %
13.12.2021 20:54 8,5 C 7,8 C 6,1 C 86 % 1027,8 hPa 0,0 l/m 0 min 0 min 0 W/m 6,4 km/h (2 Bft) 100,00 %
13.12.2021 20:56 8,6 C 7,8 C 6,1 C 86 % 1027,7 hPa 0,0 l/m 0 min 0 min 0 W/m 6,4 km/h (2 Bft) 95,74 %
13.12.2021 20:58 8,6 C 7,8 C 6,1 C 86 % 1027,7 hPa 0,0 l/m 0 min 0 min 0 W/m 9,7 km/h (2 Bft) 100,00 %
13.12.2021 21:00 8,6 C 7,8 C 6,1 C 86 % 1027,7 hPa 0,0 l/m 0 min 0 min 0 W/m 6,4 km/h (2 Bft) 97,87 %
13.12.2021 21:02 8,6 C 7,8 C 6,1 C 86 % 1027,7 hPa 0,0 l/m 0 min 0 min 0 W/m 6,4 km/h (2 Bft) 55,56 %
13.12.2021 21:04 8,6 C 7,8 C 6,1 C 86 % 1027,6 hPa 0,0 l/m 0 min 0 min 0 W/m 6,4 km/h (2 Bft) 100,00 %
13.12.2021 21:06 8,6 C 7,8 C 6,1 C 86 % 1027,6 hPa 0,0 l/m 0 min 0 min 0 W/m 6,4 km/h (2 Bft) 97,87 %
13.12.2021 21:08 8,6 C 7,8 C 6,1 C 86 % 1027,6 hPa 0,0 l/m 0 min 0 min 0 W/m 3,2 km/h (1 Bft) 95,74 %
13.12.2021 21:10 8,6 C 7,8 C 5,6 C 86 % 1027,6 hPa 0,0 l/m 0 min 0 min 0 W/m 3,2 km/h (1 Bft) 100,00 %
13.12.2021 21:12 8,6 C 7,8 C 5,6 C 86 % 1027,7 hPa 0,0 l/m 0 min 0 min 0 W/m 3,2 km/h (1 Bft) 97,87 %
13.12.2021 21:14 8,6 C 7,8 C 5,6 C 86 % 1027,7 hPa 0,0 l/m 0 min 0 min 0 W/m 3,2 km/h (1 Bft) 100,00 %
13.12.2021 21:16 8,6 C 7,8 C 5,6 C 86 % 1027,6 hPa 0,0 l/m 0 min 0 min 0 W/m 3,2 km/h (1 Bft) 100,00 %
13.12.2021 21:18 8,6 C 7,8 C 5,6 C 86 % 1027,6 hPa 0,0 l/m 0 min 0 min 0 W/m 6,4 km/h (2 Bft) 100,00 %
13.12.2021 21:20 8,6 C 7,8 C 5,6 C 86 % 1027,5 hPa 0,0 l/m 0 min 0 min 0 W/m 6,4 km/h (2 Bft) 100,00 %
13.12.2021 21:22 8,6 C 7,8 C 5,6 C 86 % 1027,6 hPa 0,0 l/m 0 min 0 min 0 W/m 3,2 km/h (1 Bft) 97,87 %
13.12.2021 21:24 8,6 C 7,8 C 5,6 C 86 % 1027,6 hPa 0,0 l/m 0 min 0 min 0 W/m 3,2 km/h (1 Bft) 100,00 %
13.12.2021 21:26 8,6 C 7,8 C 5,6 C 86 % 1027,6 hPa 0,0 l/m 0 min 0 min 0 W/m 6,4 km/h (2 Bft) 97,83 %
13.12.2021 21:28 8,6 C 7,8 C 5,6 C 87 % 1027,6 hPa 0,0 l/m 0 min 0 min 0 W/m 6,4 km/h (2 Bft) 97,87 %
13.12.2021 21:30 8,6 C 7,8 C 5,6 C 87 % 1027,6 hPa 0,0 l/m 0 min 0 min 0 W/m 3,2 km/h (1 Bft) 93,62 %
13.12.2021 21:32 8,6 C 7,8 C 5,6 C 87 % 1027,6 hPa 0,0 l/m 0 min 0 min 0 W/m 3,2 km/h (1 Bft) 93,62 %
13.12.2021 21:34 8,6 C 7,8 C 5,6 C 87 % 1027,6 hPa 0,0 l/m 0 min 0 min 0 W/m 6,4 km/h (2 Bft) 95,74 %
13.12.2021 21:36 8,6 C 7,8 C 5,6 C 87 % 1027,7 hPa 0,0 l/m 0 min 0 min 0 W/m 12,9 km/h (3 Bft) 91,49 %
13.12.2021 21:38 8,6 C 7,8 C 5,6 C 87 % 1027,6 hPa 0,0 l/m 0 min 0 min 0 W/m 9,7 km/h (2 Bft) 93,48 %
13.12.2021 21:40 8,6 C 7,8 C 5,6 C 87 % 1027,6 hPa 0,0 l/m 0 min 0 min 0 W/m 3,2 km/h (1 Bft) 93,62 %
13.12.2021 21:42 8,6 C 7,8 C 5,6 C 87 % 1027,6 hPa 0,0 l/m 0 min 0 min 0 W/m 3,2 km/h (1 Bft) 93,62 %
13.12.2021 21:44 8,6 C 7,8 C 5,6 C 87 % 1027,6 hPa 0,0 l/m 0 min 0 min 0 W/m 3,2 km/h (1 Bft) 91,49 %
13.12.2021 21:46 8,6 C 7,8 C 5,6 C 87 % 1027,6 hPa 0,0 l/m 0 min 0 min 0 W/m 3,2 km/h (1 Bft) 93,62 %
13.12.2021 21:48 8,6 C 7,8 C 5,6 C 87 % 1027,6 hPa 0,0 l/m 0 min 0 min 0 W/m 6,4 km/h (2 Bft) 93,62 %
13.12.2021 21:50 8,6 C 7,8 C 5,6 C 87 % 1027,5 hPa 0,0 l/m 0 min 0 min 0 W/m 6,4 km/h (2 Bft) 91,30 %
13.12.2021 21:52 8,6 C 7,8 C 5,6 C 87 % 1027,6 hPa 0,0 l/m 0 min 0 min 0 W/m 6,4 km/h (2 Bft) 93,62 %
13.12.2021 21:54 8,6 C 7,8 C 5,6 C 87 % 1027,5 hPa 0,0 l/m 0 min 0 min 0 W/m 6,4 km/h (2 Bft) 93,62 %
13.12.2021 21:56 8,6 C 7,8 C 5,6 C 87 % 1027,5 hPa 0,0 l/m 0 min 0 min 0 W/m 6,4 km/h (2 Bft) 93,62 %
13.12.2021 21:58 8,6 C 7,8 C 5,6 C 87 % 1027,5 hPa 0,0 l/m 0 min 0 min 0 W/m 6,4 km/h (2 Bft) 95,74 %
13.12.2021 22:00 8,6 C 7,8 C 5,6 C 87 % 1027,5 hPa 0,0 l/m 0 min 0 min 0 W/m 3,2 km/h (1 Bft) 95,65 %
13.12.2021 22:02 8,6 C 7,8 C 5,6 C 87 % 1027,5 hPa 0,0 l/m 0 min 0 min 0 W/m 3,2 km/h (1 Bft) 89,36 %
13.12.2021 22:04 8,5 C 7,8 C 5,6 C 87 % 1027,5 hPa 0,0 l/m 0 min 0 min 0 W/m 6,4 km/h (2 Bft) 95,74 %
13.12.2021 22:06 8,6 C 7,8 C 5,6 C 87 % 1027,5 hPa 0,0 l/m 0 min 0 min 0 W/m 6,4 km/h (2 Bft) 95,74 %
13.12.2021 22:08 8,6 C 7,8 C 5,6 C 87 % 1027,4 hPa 0,0 l/m 0 min 0 min 0 W/m 6,4 km/h (2 Bft) 95,74 %
13.12.2021 22:10 8,6 C 7,8 C 5,6 C 87 % 1027,4 hPa 0,0 l/m 0 min 0 min 0 W/m 6,4 km/h (2 Bft) 93,62 %
13.12.2021 22:12 8,5 C 7,8 C 5,6 C 87 % 1027,4 hPa 0,0 l/m 0 min 0 min 0 W/m 6,4 km/h (2 Bft) 95,65 %
13.12.2021 22:14 8,5 C 7,8 C 5,6 C 87 % 1027,3 hPa 0,0 l/m 0 min 0 min 0 W/m 6,4 km/h (2 Bft) 95,74 %
13.12.2021 22:16 8,5 C 7,8 C 5,6 C 87 % 1027,4 hPa 0,0 l/m 0 min 0 min 0 W/m 6,4 km/h (2 Bft) 97,87 %
13.12.2021 22:18 8,5 C 7,8 C 5,6 C 87 % 1027,4 hPa 0,0 l/m 0 min 0 min 0 W/m 6,4 km/h (2 Bft) 100,00 %
13.12.2021 22:20 8,5 C 7,8 C 5,6 C 87 % 1027,4 hPa 0,0 l/m 0 min 0 min 0 W/m 6,4 km/h (2 Bft) 100,00 %
13.12.2021 22:22 8,5 C 7,8 C 5,6 C 87 % 1027,4 hPa 0,0 l/m 0 min 0 min 0 W/m 6,4 km/h (2 Bft) 97,87 %
13.12.2021 22:24 8,5 C 7,8 C 5,6 C 87 % 1027,4 hPa 0,0 l/m 0 min 0 min 0 W/m 6,4 km/h (2 Bft) 100,00 %
13.12.2021 22:26 8,4 C 7,8 C 5,6 C 87 % 1027,4 hPa 0,0 l/m 0 min 0 min 0 W/m 6,4 km/h (2 Bft) 97,87 %
13.12.2021 22:28 8,4 C 7,8 C 5,6 C 87 % 1027,4 hPa 0,0 l/m 0 min 0 min 0 W/m 3,2 km/h (1 Bft) 100,00 %
13.12.2021 22:30 8,4 C 7,8 C 5,6 C 87 % 1027,4 hPa 0,0 l/m 0 min 0 min 0 W/m 6,4 km/h (2 Bft) 100,00 %
13.12.2021 22:32 8,4 C 7,8 C 5,6 C 87 % 1027,3 hPa 0,0 l/m 0 min 0 min 0 W/m 6,4 km/h (2 Bft) 100,00 %
13.12.2021 22:34 8,4 C 7,8 C 5,6 C 87 % 1027,4 hPa 0,0 l/m 0 min 0 min 0 W/m 6,4 km/h (2 Bft) 97,87 %
13.12.2021 22:36 8,4 C 7,8 C 5,6 C 88 % 1027,4 hPa 0,0 l/m 0 min 0 min 0 W/m 3,2 km/h (1 Bft) 100,00 %
13.12.2021 22:38 8,4 C 7,8 C 5,6 C 88 % 1027,4 hPa 0,0 l/m 0 min 0 min 0 W/m 6,4 km/h (2 Bft) 100,00 %
13.12.2021 22:40 8,4 C 7,8 C 5,6 C 88 % 1027,4 hPa 0,0 l/m 0 min 0 min 0 W/m 6,4 km/h (2 Bft) 100,00 %
13.12.2021 22:42 8,4 C 7,8 C 5,6 C 88 % 1027,3 hPa 0,0 l/m 0 min 0 min 0 W/m 6,4 km/h (2 Bft) 100,00 %
13.12.2021 22:44 8,4 C 7,8 C 5,6 C 88 % 1027,3 hPa 0,0 l/m 0 min 0 min 0 W/m 3,2 km/h (1 Bft) 100,00 %
13.12.2021 22:46 8,4 C 7,8 C 5,6 C 88 % 1027,3 hPa 0,0 l/m 0 min 0 min 0 W/m 12,9 km/h (3 Bft) 100,00 %
13.12.2021 22:48 8,4 C 7,8 C 5,6 C 88 % 1027,3 hPa 0,0 l/m 0 min 0 min 0 W/m 3,2 km/h (1 Bft) 100,00 %
13.12.2021 22:50 8,4 C 7,8 C 5,6 C 88 % 1027,3 hPa 0,0 l/m 0 min 0 min 0 W/m 6,4 km/h (2 Bft) 100,00 %
13.12.2021 22:52 8,4 C 7,8 C 5,6 C 88 % 1027,3 hPa 0,0 l/m 0 min 0 min 0 W/m 6,4 km/h (2 Bft) 100,00 %
13.12.2021 22:54 8,4 C 7,8 C 5,6 C 88 % 1027,3 hPa 0,0 l/m 0 min 0 min 0 W/m 3,2 km/h (1 Bft) 100,00 %
13.12.2021 22:56 8,4 C 7,8 C 5,6 C 88 % 1027,2 hPa 0,0 l/m 0 min 0 min 0 W/m 6,4 km/h (2 Bft) 100,00 %
13.12.2021 22:58 8,4 C 7,8 C 5,6 C 88 % 1027,2 hPa 0,0 l/m 0 min 0 min 0 W/m 6,4 km/h (2 Bft) 100,00 %
13.12.2021 23:00 8,4 C 7,8 C 5,6 C 88 % 1027,2 hPa 0,0 l/m 0 min 0 min 0 W/m 3,2 km/h (1 Bft) 100,00 %
13.12.2021 23:02 8,4 C 7,8 C 5,6 C 88 % 1027,2 hPa 0,0 l/m 0 min 0 min 0 W/m 6,4 km/h (2 Bft) 100,00 %
13.12.2021 23:04 8,4 C 7,8 C 5,6 C 88 % 1027,2 hPa 0,0 l/m 0 min 0 min 0 W/m 6,4 km/h (2 Bft) 100,00 %
13.12.2021 23:06 8,3 C 7,8 C 5,6 C 88 % 1027,2 hPa 0,0 l/m 0 min 0 min 0 W/m 6,4 km/h (2 Bft) 100,00 %
13.12.2021 23:08 8,3 C 7,8 C 5,6 C 88 % 1027,1 hPa 0,0 l/m 0 min 0 min 0 W/m 6,4 km/h (2 Bft) 100,00 %
13.12.2021 23:10 8,3 C 7,8 C 5,6 C 88 % 1027,1 hPa 0,0 l/m 0 min 0 min 0 W/m 6,4 km/h (2 Bft) 97,83 %
13.12.2021 23:12 8,3 C 7,8 C 5,6 C 88 % 1027,2 hPa 0,0 l/m 0 min 0 min 0 W/m 6,4 km/h (2 Bft) 100,00 %
13.12.2021 23:14 8,3 C 7,8 C 5,6 C 88 % 1027,2 hPa 0,0 l/m 0 min 0 min 0 W/m 6,4 km/h (2 Bft) 100,00 %
13.12.2021 23:16 8,3 C 7,8 C 5,6 C 88 % 1027,2 hPa 0,0 l/m 0 min 0 min 0 W/m 3,2 km/h (1 Bft) 97,87 %
13.12.2021 23:18 8,3 C 7,8 C 5,6 C 88 % 1027,3 hPa 0,0 l/m 0 min 0 min 0 W/m 3,2 km/h (1 Bft) 100,00 %
13.12.2021 23:20 8,3 C 7,8 C 5,6 C 88 % 1027,3 hPa 0,0 l/m 0 min 0 min 0 W/m 9,7 km/h (2 Bft) 100,00 %
13.12.2021 23:22 8,3 C 7,8 C 5,6 C 88 % 1027,3 hPa 0,0 l/m 0 min 0 min 0 W/m 3,2 km/h (1 Bft) 97,83 %
13.12.2021 23:24 8,3 C 7,8 C 5,6 C 88 % 1027,3 hPa 0,0 l/m 0 min 0 min 0 W/m 3,2 km/h (1 Bft) 97,87 %
13.12.2021 23:26 8,3 C 7,8 C 5,6 C 88 % 1027,3 hPa 0,0 l/m 0 min 0 min 0 W/m 3,2 km/h (1 Bft) 95,74 %
13.12.2021 23:28 8,3 C 7,8 C 5,6 C 88 % 1027,4 hPa 0,0 l/m 0 min 0 min 0 W/m 3,2 km/h (1 Bft) 97,87 %
13.12.2021 23:30 8,3 C 7,8 C 5,6 C 88 % 1027,4 hPa 0,0 l/m 0 min 0 min 0 W/m 3,2 km/h (1 Bft) 97,87 %
13.12.2021 23:32 8,3 C 7,8 C 5,6 C 88 % 1027,4 hPa 0,0 l/m 0 min 0 min 0 W/m 3,2 km/h (1 Bft) 97,87 %
13.12.2021 23:34 8,3 C 7,8 C 5,6 C 88 % 1027,4 hPa 0,0 l/m 0 min 0 min 0 W/m 3,2 km/h (1 Bft) 97,83 %
13.12.2021 23:36 8,3 C 7,8 C 5,6 C 88 % 1027,4 hPa 0,0 l/m 0 min 0 min 0 W/m 3,2 km/h (1 Bft) 97,87 %
13.12.2021 23:38 8,2 C 7,8 C 5,6 C 88 % 1027,5 hPa 0,0 l/m 0 min 0 min 0 W/m 6,4 km/h (2 Bft) 97,87 %
13.12.2021 23:40 8,3 C 7,8 C 5,6 C 88 % 1027,6 hPa 0,0 l/m 0 min 0 min 0 W/m 6,4 km/h (2 Bft) 95,74 %
13.12.2021 23:42 8,3 C 7,8 C 5,6 C 88 % 1027,6 hPa 0,0 l/m 0 min 0 min 0 W/m 3,2 km/h (1 Bft) 97,87 %
13.12.2021 23:44 8,3 C 7,8 C 5,6 C 88 % 1027,6 hPa 0,0 l/m 0 min 0 min 0 W/m 3,2 km/h (1 Bft) 97,83 %
13.12.2021 23:46 8,2 C 7,8 C 5,0 C 88 % 1027,7 hPa 0,0 l/m 0 min 0 min 0 W/m 9,7 km/h (2 Bft) 97,87 %
13.12.2021 23:48 8,3 C 7,8 C 5,6 C 88 % 1027,6 hPa 0,0 l/m 0 min 0 min 0 W/m 3,2 km/h (1 Bft) 97,87 %
13.12.2021 23:50 8,2 C 7,8 C 5,0 C 88 % 1027,6 hPa 0,0 l/m 0 min 0 min 0 W/m 3,2 km/h (1 Bft) 93,62 %
13.12.2021 23:52 8,2 C 7,8 C 5,0 C 89 % 1027,6 hPa 0,0 l/m 0 min 0 min 0 W/m 3,2 km/h (1 Bft) 97,87 %
13.12.2021 23:54 8,2 C 7,8 C 5,0 C 89 % 1027,6 hPa 0,0 l/m 0 min 0 min 0 W/m 6,4 km/h (2 Bft) 95,74 %
13.12.2021 23:56 8,2 C 7,2 C 5,0 C 89 % 1027,6 hPa 0,0 l/m 0 min 0 min 0 W/m 3,2 km/h (1 Bft) 100,00 %
13.12.2021 23:58 8,2 C 7,2 C 5,0 C 89 % 1027,6 hPa 0,0 l/m 0 min 0 min 0 W/m 0,0 km/h (0 Bft) 100,00 %
_ Min-Zeit 23:38 23:56 23:46 13:44 00:28 - - - - 11:58 12:10
Minimum _ 8,2 C 7,2 C 5,0 C 85 % 1025,9 hPa - - - - 0,0 km/h (0 Bft) 54,55 %
_ Max-Zeit 13:06 12:16 12:20 00:00 10:56 00:36 12:12 00:20 12:16 09:56 00:00
Maximum _ 10,2 C 10,6 C 8,9 C 100 % 1028,3 hPa 0,2 l/m 2 min 2 min 173 W/m 22,5 km/h
S (4 Bft)
100,00 %
Durchschnitt _ 8,9 C 8,3 C 7,1 C 93 % 1027,3 hPa #0,2 l/m #18 min. #10 min. 45 W/m 9,6 km/h (2 Bft) 97,32 %
© 2021 W. Hausmann